BAW248 SBGL-EGLL

Flight info

Callsign BAW248
Flight time 10h 14m
Altitude 33000
Route UTMIP1A IMBAP UZ1 ESNIN UN866 ARTIG/M082F350 UN866 AMDOL/M082F370 UN866 TENPA/M082F370 N866 ORVEK/N0474F370 N866 GOMER/N0470F380 N981 BIMBO DCT AGADO DCT KORUL DCT FEJAC/N0444F340 DCT JSY DCT REVTU UP87 ROXOG ROXOG1H
Aircraft B772/H-SDE1E3FGHIJ3J5J6M1M2P2RWXYZ/LB1D1

Departure

Time 2026-05-07 20:39
Airport Rio Galeão – Tom Jobim International Airport (SBGL)

Arrival

Time 2026-05-08 06:53
Airport London Heathrow Airport (EGLL)
Time Latitude Longitude Altitude Speed Heading
2026-05-07 20:10 -22.81833 -43.24449 26 ft 0 kts 125°
2026-05-07 20:28 -22.81829 -43.24455 26 ft 4 kts 126°
2026-05-07 20:28 -22.81812 -43.24478 31 ft 4 kts 133°
2026-05-07 20:28 -22.81793 -43.24498 31 ft 4 kts 145°
2026-05-07 20:29 -22.81770 -43.24511 31 ft 4 kts 177°
2026-05-07 20:29 -22.81755 -43.24508 31 ft 0 kts 215°
2026-05-07 20:31 -22.81765 -43.24516 31 ft 5 kts 215°
2026-05-07 20:31 -22.81811 -43.24551 29 ft 10 kts 216°
2026-05-07 20:31 -22.81883 -43.24604 30 ft 14 kts 211°
2026-05-07 20:32 -22.81943 -43.24669 29 ft 13 kts 272°
2026-05-07 20:32 -22.81893 -43.24760 30 ft 16 kts 303°
2026-05-07 20:32 -22.81829 -43.24855 28 ft 16 kts 306°
2026-05-07 20:32 -22.81762 -43.24956 31 ft 18 kts 306°
2026-05-07 20:33 -22.81686 -43.25071 31 ft 20 kts 305°
2026-05-07 20:33 -22.81603 -43.25197 31 ft 21 kts 306°
2026-05-07 20:33 -22.81512 -43.25333 28 ft 23 kts 306°
2026-05-07 20:33 -22.81416 -43.25479 29 ft 24 kts 306°
2026-05-07 20:34 -22.81318 -43.25629 30 ft 25 kts 306°
2026-05-07 20:34 -22.81215 -43.25782 29 ft 25 kts 306°
2026-05-07 20:34 -22.81133 -43.25905 30 ft 16 kts 312°
2026-05-07 20:34 -22.81036 -43.25892 27 ft 16 kts 39°
2026-05-07 20:35 -22.80947 -43.25823 27 ft 16 kts 35°
2026-05-07 20:35 -22.80886 -43.25776 27 ft 16 kts 35°
2026-05-07 20:35 -22.80850 -43.25748 28 ft 16 kts 35°
2026-05-07 20:35 -22.80763 -43.25681 32 ft 16 kts 36°
2026-05-07 20:36 -22.80674 -43.25612 33 ft 16 kts 36°
2026-05-07 20:36 -22.80585 -43.25544 34 ft 15 kts 35°
2026-05-07 20:36 -22.80491 -43.25560 35 ft 16 kts 326°
2026-05-07 20:36 -22.80394 -43.25617 33 ft 16 kts 354°
2026-05-07 20:37 -22.80301 -43.25556 30 ft 16 kts 39°
2026-05-07 20:37 -22.80212 -43.25483 29 ft 16 kts 35°
2026-05-07 20:37 -22.80155 -43.25382 30 ft 20 kts 74°
2026-05-07 20:37 -22.80141 -43.25327 29 ft 27 kts 74°
2026-05-07 20:38 -22.80095 -43.25152 30 ft 56 kts 74°
2026-05-07 20:38 -22.79932 -43.24524 37 ft 118 kts 74°
2026-05-07 20:38 -22.79656 -43.23461 36 ft 173 kts 74°
2026-05-07 20:38 -22.79317 -43.22163 479 ft 180 kts 75°
2026-05-07 20:39 -22.79162 -43.21515 726 ft 184 kts 76°
2026-05-07 20:39 -22.78948 -43.20593 1095 ft 186 kts 76°
2026-05-07 20:39 -22.78639 -43.19228 1601 ft 189 kts 76°
2026-05-07 20:40 -22.78332 -43.17795 1766 ft 202 kts 77°
2026-05-07 20:40 -22.78018 -43.16275 1875 ft 218 kts 76°
2026-05-07 20:40 -22.77672 -43.14608 1967 ft 235 kts 76°
2026-05-07 20:40 -22.77301 -43.12824 2188 ft 249 kts 76°
2026-05-07 20:41 -22.76912 -43.10965 2597 ft 256 kts 76°
2026-05-07 20:41 -22.76513 -43.09064 3037 ft 262 kts 75°
2026-05-07 20:41 -22.76105 -43.07135 3557 ft 263 kts 75°
2026-05-07 20:41 -22.75696 -43.05196 4086 ft 265 kts 75°
2026-05-07 20:42 -22.75283 -43.03246 4639 ft 266 kts 74°
2026-05-07 20:42 -22.74686 -43.01360 4923 ft 267 kts 53°
2026-05-07 20:42 -22.73304 -43.00051 5282 ft 267 kts 22°
2026-05-07 20:42 -22.71511 -42.99648 5814 ft 264 kts 357°
2026-05-07 20:43 -22.69747 -43.00031 6340 ft 263 kts 336°
2026-05-07 20:43 -22.68135 -43.00964 6711 ft 262 kts 338°
2026-05-07 20:43 -22.66333 -43.01213 6902 ft 268 kts 12°
2026-05-07 20:43 -22.64558 -43.00615 7253 ft 269 kts 17°
2026-05-07 20:44 -22.62763 -43.00015 7707 ft 270 kts 14°
2026-05-07 20:44 -22.60948 -42.99474 8184 ft 271 kts 13°
2026-05-07 20:44 -22.59120 -42.98962 8651 ft 272 kts 13°
2026-05-07 20:44 -22.57275 -42.98467 9102 ft 274 kts 12°
2026-05-07 20:45 -22.55411 -42.97981 9557 ft 276 kts 12°
2026-05-07 20:45 -22.53592 -42.97384 9957 ft 279 kts 19°
2026-05-07 20:45 -22.51779 -42.96587 10223 ft 288 kts 21°
2026-05-07 20:45 -22.49884 -42.95722 10336 ft 303 kts 21°
2026-05-07 20:46 -22.47889 -42.94823 10455 ft 319 kts 21°
2026-05-07 20:46 -22.46736 -42.94310 10490 ft 326 kts 21°
2026-05-07 20:46 -22.44600 -42.93374 10658 ft 334 kts 21°
2026-05-07 20:46 -22.42432 -42.92429 11187 ft 339 kts 21°
2026-05-07 20:47 -22.40221 -42.91475 11626 ft 346 kts 20°
2026-05-07 20:47 -22.37990 -42.90517 12261 ft 346 kts 21°
2026-05-07 20:47 -22.35770 -42.89565 12838 ft 350 kts 21°
2026-05-07 20:47 -22.33481 -42.88585 13258 ft 358 kts 21°
2026-05-07 20:48 -22.31162 -42.87590 13828 ft 361 kts 21°
2026-05-07 20:48 -22.28806 -42.86579 14240 ft 368 kts 21°
2026-05-07 20:48 -22.26410 -42.85551 14684 ft 372 kts 21°
2026-05-07 20:48 -22.23999 -42.84516 15291 ft 373 kts 21°
2026-05-07 20:49 -22.21583 -42.83480 15855 ft 376 kts 21°
2026-05-07 20:49 -22.19130 -42.82428 16301 ft 382 kts 21°
2026-05-07 20:49 -22.16683 -42.81381 16816 ft 385 kts 22°
2026-05-07 20:49 -22.14177 -42.80308 17301 ft 390 kts 22°
2026-05-07 20:50 -22.11637 -42.79221 17819 ft 394 kts 22°
2026-05-07 20:50 -22.09082 -42.78128 18364 ft 397 kts 22°
2026-05-07 20:50 -22.06493 -42.77020 18768 ft 403 kts 22°
2026-05-07 20:50 -22.03871 -42.75899 19171 ft 408 kts 22°
2026-05-07 20:51 -22.01221 -42.74766 19597 ft 412 kts 22°
2026-05-07 20:51 -21.98546 -42.73622 20061 ft 416 kts 22°
2026-05-07 20:51 -21.95883 -42.72485 20515 ft 419 kts 22°
2026-05-07 20:51 -21.93158 -42.71321 20984 ft 423 kts 22°
2026-05-07 20:52 -21.90408 -42.70147 21431 ft 427 kts 22°
2026-05-07 20:52 -21.87637 -42.68964 21866 ft 431 kts 22°
2026-05-07 20:52 -21.84835 -42.67769 22288 ft 435 kts 22°
2026-05-07 20:52 -21.82001 -42.66561 22719 ft 440 kts 22°
2026-05-07 20:53 -21.79150 -42.65346 23142 ft 443 kts 22°
2026-05-07 20:53 -21.76306 -42.64135 23567 ft 447 kts 22°
2026-05-07 20:53 -21.73399 -42.62897 23929 ft 451 kts 22°
2026-05-07 20:53 -21.70471 -42.61651 24293 ft 455 kts 22°
2026-05-07 20:54 -21.67520 -42.60395 24640 ft 458 kts 22°
2026-05-07 20:54 -21.64540 -42.59134 24988 ft 461 kts 20°
2026-05-07 20:54 -21.61479 -42.58061 25292 ft 465 kts 14°
2026-05-07 20:54 -21.58313 -42.57271 25615 ft 468 kts 12°
2026-05-07 20:55 -21.55120 -42.56511 25939 ft 472 kts 12°
2026-05-07 20:55 -21.51907 -42.55747 26280 ft 474 kts 12°
2026-05-07 20:55 -21.48721 -42.54982 26612 ft 477 kts 12°
2026-05-07 20:55 -21.45473 -42.54193 26925 ft 480 kts 12°
2026-05-07 20:56 -21.42205 -42.53393 27233 ft 483 kts 12°
2026-05-07 20:56 -21.38922 -42.52585 27539 ft 486 kts 12°
2026-05-07 20:56 -21.35621 -42.51771 27837 ft 488 kts 12°
2026-05-07 20:56 -21.32305 -42.50952 28121 ft 491 kts 12°
2026-05-07 20:57 -21.28967 -42.50129 28401 ft 493 kts 12°
2026-05-07 20:57 -21.25615 -42.49304 28677 ft 496 kts 12°
2026-05-07 20:57 -21.22286 -42.48484 28912 ft 498 kts 12°
2026-05-07 20:57 -21.18898 -42.47651 29155 ft 502 kts 12°
2026-05-07 20:58 -21.15486 -42.46811 29395 ft 505 kts 12°
2026-05-07 20:58 -21.12056 -42.45968 29631 ft 507 kts 12°
2026-05-07 20:58 -21.08607 -42.45120 29900 ft 509 kts 12°
2026-05-07 20:58 -21.05148 -42.44270 30137 ft 511 kts 12°
2026-05-07 20:59 -21.01674 -42.43418 30328 ft 513 kts 12°
2026-05-07 20:59 -20.98234 -42.42574 30527 ft 515 kts 12°
2026-05-07 20:59 -20.94730 -42.41714 30708 ft 518 kts 12°
2026-05-07 20:59 -20.91218 -42.40854 30901 ft 519 kts 12°
2026-05-07 21:00 -20.87693 -42.39992 31076 ft 521 kts 12°
2026-05-07 21:00 -20.84146 -42.39123 31187 ft 524 kts 12°
2026-05-07 21:00 -20.80583 -42.38251 31345 ft 526 kts 12°
2026-05-07 21:00 -20.77006 -42.37375 31537 ft 527 kts 12°
2026-05-07 21:01 -20.73426 -42.36500 31694 ft 529 kts 12°
2026-05-07 21:01 -20.69881 -42.35634 31868 ft 530 kts 12°
2026-05-07 21:01 -20.66278 -42.34753 32018 ft 532 kts 12°
2026-05-07 21:01 -20.62666 -42.33871 32174 ft 533 kts 12°
2026-05-07 21:02 -20.59048 -42.32988 32305 ft 534 kts 12°
2026-05-07 21:02 -20.55423 -42.32104 32455 ft 535 kts 12°
2026-05-07 21:02 -20.51795 -42.31227 32629 ft 535 kts 12°
2026-05-07 21:02 -20.48156 -42.30361 32782 ft 535 kts 12°
2026-05-07 21:03 -20.44521 -42.29504 32948 ft 536 kts 12°
2026-05-07 21:03 -20.37277 -42.27793 33071 ft 538 kts 12°
2026-05-07 21:04 -20.29981 -42.26065 33073 ft 535 kts 12°
2026-05-07 21:04 -20.22729 -42.24347 33072 ft 533 kts 12°
2026-05-07 21:05 -20.15537 -42.22644 33079 ft 533 kts 12°
2026-05-07 21:05 -20.08293 -42.20931 33086 ft 534 kts 12°
2026-05-07 21:06 -20.01042 -42.19172 33077 ft 535 kts 13°
2026-05-07 21:06 -19.93815 -42.17279 33083 ft 535 kts 14°
2026-05-07 21:07 -19.87799 -42.15700 33072 ft 536 kts 13°
2026-05-07 21:07 -19.79380 -42.13524 33066 ft 535 kts 13°
2026-05-07 21:08 -19.72132 -42.11701 33067 ft 535 kts 12°
2026-05-07 21:08 -19.64839 -42.10061 33075 ft 535 kts 11°
2026-05-07 21:09 -19.58777 -42.08717 33057 ft 536 kts 12°
2026-05-07 21:09 -19.50306 -42.06801 33061 ft 536 kts 12°
2026-05-07 21:10 -19.43018 -42.05140 33059 ft 536 kts 12°
2026-05-07 21:10 -19.36961 -42.03763 33058 ft 536 kts 12°
2026-05-07 21:11 -19.29678 -42.02071 33054 ft 536 kts 13°
2026-05-07 21:11 -19.17616 -41.99042 33048 ft 536 kts 13°
2026-05-07 21:12 -19.11587 -41.97564 33044 ft 535 kts 13°
2026-05-07 21:12 -19.04324 -41.95831 33049 ft 535 kts 13°
2026-05-07 21:13 -18.97062 -41.94090 33044 ft 535 kts 13°
2026-05-07 21:13 -18.88618 -41.92068 33046 ft 535 kts 13°
2026-05-07 21:14 -18.82574 -41.90624 33031 ft 536 kts 13°
2026-05-07 21:14 -18.75299 -41.88881 33046 ft 536 kts 13°
2026-05-07 21:15 -18.68021 -41.87142 33025 ft 536 kts 13°
2026-05-07 21:15 -18.60747 -41.85407 33040 ft 536 kts 13°
2026-05-07 21:16 -18.53524 -41.83693 33048 ft 536 kts 13°
2026-05-07 21:16 -18.46247 -41.81969 33039 ft 536 kts 13°
2026-05-07 21:17 -18.38967 -41.80247 33036 ft 536 kts 13°
2026-05-07 21:17 -18.31705 -41.78529 33037 ft 535 kts 13°
2026-05-07 21:18 -18.24446 -41.76812 33063 ft 534 kts 13°
2026-05-07 21:18 -18.17245 -41.75111 33049 ft 535 kts 13°
2026-05-07 21:19 -18.09987 -41.73397 33060 ft 535 kts 13°
2026-05-07 21:19 -18.02724 -41.71684 33054 ft 535 kts 13°
2026-05-07 21:20 -17.95465 -41.69973 33071 ft 535 kts 13°
2026-05-07 21:20 -17.88249 -41.68274 33063 ft 535 kts 13°
2026-05-07 21:21 -17.80983 -41.66564 33072 ft 535 kts 13°
2026-05-07 21:21 -17.73719 -41.64857 33073 ft 535 kts 13°
2026-05-07 21:22 -17.66457 -41.63151 33076 ft 534 kts 13°
2026-05-07 21:22 -17.59250 -41.61460 33082 ft 535 kts 13°
2026-05-07 21:23 -17.51985 -41.59756 33083 ft 535 kts 13°
2026-05-07 21:23 -17.44727 -41.58054 33083 ft 535 kts 13°
2026-05-07 21:24 -17.37453 -41.56353 33075 ft 535 kts 13°
2026-05-07 21:24 -17.30228 -41.54676 33076 ft 535 kts 13°
2026-05-07 21:25 -17.22962 -41.52995 33079 ft 535 kts 13°
2026-05-07 21:25 -17.15699 -41.51310 33086 ft 534 kts 13°
2026-05-07 21:26 -17.08438 -41.49624 33084 ft 535 kts 13°
2026-05-07 21:26 -17.01228 -41.47941 33080 ft 535 kts 13°
2026-05-07 21:27 -16.93968 -41.46247 33081 ft 535 kts 13°
2026-05-07 21:27 -16.86705 -41.44556 33074 ft 535 kts 13°
2026-05-07 21:28 -16.79440 -41.42865 33073 ft 535 kts 13°
2026-05-07 21:28 -16.72223 -41.41187 33079 ft 535 kts 14°
2026-05-07 21:29 -16.64958 -41.39497 33071 ft 535 kts 14°
2026-05-07 21:29 -16.57690 -41.37799 33058 ft 535 kts 14°
2026-05-07 21:30 -16.50428 -41.36104 33068 ft 535 kts 14°
2026-05-07 21:30 -16.43168 -41.34411 33073 ft 535 kts 14°
2026-05-07 21:31 -16.35949 -41.32730 33072 ft 535 kts 14°
2026-05-07 21:31 -16.28695 -41.31041 33063 ft 534 kts 14°
2026-05-07 21:32 -16.21441 -41.29353 33071 ft 534 kts 14°
2026-05-07 21:32 -16.14244 -41.27681 33068 ft 533 kts 13°
2026-05-07 21:33 -16.07006 -41.26000 33073 ft 533 kts 14°
2026-05-07 21:33 -15.99780 -41.24323 33078 ft 532 kts 13°
2026-05-07 21:34 -15.92554 -41.22646 33075 ft 532 kts 13°
2026-05-07 21:34 -15.85334 -41.20972 33088 ft 532 kts 13°
2026-05-07 21:35 -15.78161 -41.19309 33085 ft 532 kts 14°
2026-05-07 21:35 -15.70928 -41.17633 33079 ft 533 kts 13°
2026-05-07 21:36 -15.63693 -41.15961 33082 ft 533 kts 13°
2026-05-07 21:36 -15.56449 -41.14303 33081 ft 533 kts 13°
2026-05-07 21:37 -15.49253 -41.12655 33077 ft 533 kts 13°
2026-05-07 21:37 -15.42004 -41.11046 33072 ft 533 kts 12°
2026-05-07 21:38 -15.34721 -41.09588 33079 ft 533 kts 11°
2026-05-07 21:38 -15.27437 -41.08152 33069 ft 533 kts 12°
2026-05-07 21:39 -15.20204 -41.06704 33072 ft 533 kts 12°
2026-05-07 21:39 -15.12934 -41.05234 33072 ft 532 kts 12°
2026-05-07 21:40 -15.05661 -41.03762 33074 ft 532 kts 12°
2026-05-07 21:40 -14.98395 -41.02295 33069 ft 532 kts 12°
2026-05-07 21:41 -14.91177 -41.00839 33068 ft 532 kts 12°
2026-05-07 21:41 -14.83920 -40.99376 33061 ft 531 kts 12°
2026-05-07 21:42 -14.76658 -40.97914 33058 ft 531 kts 12°
2026-05-07 21:42 -14.69402 -40.96454 33064 ft 531 kts 12°
2026-05-07 21:43 -14.62198 -40.95004 33050 ft 531 kts 11°
2026-05-07 21:43 -14.54945 -40.93546 33052 ft 531 kts 11°
2026-05-07 21:44 -14.47690 -40.92089 33055 ft 531 kts 11°
2026-05-07 21:44 -14.40441 -40.90635 33055 ft 530 kts 11°
2026-05-07 21:45 -14.33249 -40.89192 33048 ft 530 kts 11°
2026-05-07 21:45 -14.26018 -40.87741 33047 ft 529 kts 11°
2026-05-07 21:46 -14.18795 -40.86295 33048 ft 529 kts 11°
2026-05-07 21:46 -14.11575 -40.84849 33047 ft 528 kts 11°
2026-05-07 21:47 -14.04407 -40.83415 33041 ft 528 kts 11°
2026-05-07 21:47 -13.97195 -40.81973 33047 ft 528 kts 11°
2026-05-07 21:48 -13.89983 -40.80531 33043 ft 528 kts 11°
2026-05-07 21:48 -13.82767 -40.79090 33041 ft 528 kts 11°
2026-05-07 21:49 -13.75603 -40.77660 33046 ft 528 kts 11°
2026-05-07 21:49 -13.68398 -40.76180 33045 ft 528 kts 12°
2026-05-07 21:50 -13.61213 -40.74580 33047 ft 528 kts 12°
2026-05-07 21:50 -13.54036 -40.72973 33054 ft 528 kts 12°
2026-05-07 21:51 -13.46907 -40.71398 33054 ft 527 kts 12°
2026-05-07 21:51 -13.39735 -40.69823 33053 ft 527 kts 12°
2026-05-07 21:52 -13.32568 -40.68250 33052 ft 526 kts 11°
2026-05-07 21:52 -13.25421 -40.66680 33050 ft 525 kts 11°
2026-05-07 21:53 -13.18288 -40.65114 33046 ft 524 kts 11°
2026-05-07 21:53 -13.11208 -40.63562 33045 ft 523 kts 11°
2026-05-07 21:54 -13.04083 -40.62016 33046 ft 523 kts 11°
2026-05-07 21:54 -12.96959 -40.60478 33047 ft 523 kts 11°
2026-05-07 21:55 -12.89825 -40.58933 33043 ft 524 kts 11°
2026-05-07 21:55 -12.82739 -40.57401 33037 ft 524 kts 11°
2026-05-07 21:56 -12.75599 -40.55850 33046 ft 524 kts 12°
2026-05-07 21:56 -12.68658 -40.53539 33040 ft 526 kts 24°
2026-05-07 21:57 -12.62081 -40.50263 33054 ft 526 kts 26°
2026-05-07 21:57 -12.55553 -40.46993 33050 ft 526 kts 25°
2026-05-07 21:58 -12.48968 -40.43744 33045 ft 525 kts 25°
2026-05-07 21:58 -12.42386 -40.40522 33042 ft 524 kts 25°
2026-05-07 21:59 -12.35815 -40.37308 33042 ft 523 kts 25°
2026-05-07 21:59 -12.29295 -40.34117 33029 ft 523 kts 24°
2026-05-07 22:00 -12.22739 -40.30909 33043 ft 522 kts 24°
2026-05-07 22:00 -12.16186 -40.27704 33043 ft 522 kts 24°
2026-05-07 22:01 -12.09634 -40.24502 33057 ft 522 kts 24°
2026-05-07 22:01 -12.03127 -40.21323 33037 ft 521 kts 24°
2026-05-07 22:02 -11.96589 -40.18131 33039 ft 520 kts 24°
2026-05-07 22:02 -11.90055 -40.14943 33041 ft 520 kts 24°
2026-05-07 22:03 -11.83530 -40.11760 33034 ft 520 kts 24°
2026-05-07 22:03 -11.77005 -40.08579 33040 ft 520 kts 24°
2026-05-07 22:04 -11.70524 -40.05421 33039 ft 520 kts 24°
2026-05-07 22:04 -11.63997 -40.02242 33044 ft 520 kts 23°
2026-05-07 22:05 -11.57469 -39.99065 33034 ft 520 kts 23°
2026-05-07 22:05 -11.50949 -39.95901 33028 ft 519 kts 23°
2026-05-07 22:06 -11.44476 -39.92764 33037 ft 518 kts 23°
2026-05-07 22:06 -11.37967 -39.89608 33035 ft 518 kts 23°
2026-05-07 22:07 -11.31460 -39.86454 33034 ft 518 kts 23°
2026-05-07 22:07 -11.24954 -39.83301 33035 ft 518 kts 22°
2026-05-07 22:08 -11.18494 -39.80173 33039 ft 518 kts 22°
2026-05-07 22:08 -11.11997 -39.77028 33021 ft 517 kts 22°
2026-05-07 22:09 -11.05511 -39.73890 33041 ft 515 kts 22°
2026-05-07 22:09 -10.99040 -39.70761 33031 ft 514 kts 22°
2026-05-07 22:10 -10.92626 -39.67661 33026 ft 513 kts 22°
2026-05-07 22:10 -10.86182 -39.64548 33020 ft 513 kts 22°
2026-05-07 22:11 -10.79742 -39.61439 33024 ft 513 kts 22°
2026-05-07 22:11 -10.73298 -39.58329 33015 ft 512 kts 22°
2026-05-07 22:12 -10.66867 -39.55226 33028 ft 511 kts 22°
2026-05-07 22:12 -10.60485 -39.52148 33021 ft 511 kts 22°
2026-05-07 22:13 -10.54066 -39.49055 33023 ft 510 kts 22°
2026-05-07 22:13 -10.47651 -39.45964 33019 ft 510 kts 22°
2026-05-07 22:14 -10.41296 -39.42903 33017 ft 508 kts 22°
2026-05-07 22:14 -10.34916 -39.39836 33026 ft 507 kts 22°
2026-05-07 22:15 -10.28542 -39.36775 33028 ft 507 kts 22°
2026-05-07 22:15 -10.22170 -39.33713 33009 ft 507 kts 22°
2026-05-07 22:16 -10.15842 -39.30672 33024 ft 506 kts 22°
2026-05-07 22:16 -10.09485 -39.27616 33024 ft 506 kts 22°
2026-05-07 22:17 -10.03123 -39.24559 33021 ft 506 kts 22°
2026-05-07 22:17 -9.96767 -39.21506 33026 ft 506 kts 22°
2026-05-07 22:18 -9.87274 -39.16949 33014 ft 505 kts 22°
2026-05-07 22:19 -9.80906 -39.13934 33012 ft 505 kts 21°
2026-05-07 22:19 -9.74509 -39.10992 33017 ft 505 kts 21°
2026-05-07 22:20 -9.68110 -39.08054 32991 ft 505 kts 21°
2026-05-07 22:20 -9.61760 -39.05126 32998 ft 504 kts 21°
2026-05-07 22:21 -9.55383 -39.02181 33005 ft 503 kts 21°
2026-05-07 22:21 -9.49012 -38.99239 33000 ft 503 kts 21°
2026-05-07 22:22 -9.42644 -38.96301 32999 ft 503 kts 21°
2026-05-07 22:22 -9.36317 -38.93383 32995 ft 503 kts 21°
2026-05-07 22:23 -9.29950 -38.90448 32993 ft 503 kts 21°
2026-05-07 22:23 -9.23573 -38.87509 32993 ft 504 kts 21°
2026-05-07 22:24 -9.17192 -38.84569 32987 ft 504 kts 21°
2026-05-07 22:24 -9.10855 -38.81651 32985 ft 504 kts 21°
2026-05-07 22:25 -9.04472 -38.78713 32980 ft 504 kts 21°
2026-05-07 22:25 -8.98090 -38.75776 32984 ft 504 kts 21°
2026-05-07 22:26 -8.91707 -38.72840 32980 ft 504 kts 21°
2026-05-07 22:26 -8.85374 -38.69927 32969 ft 503 kts 21°
2026-05-07 22:27 -8.79011 -38.67007 32967 ft 501 kts 21°
2026-05-07 22:27 -8.72670 -38.64101 32983 ft 499 kts 21°
2026-05-07 22:28 -8.66359 -38.61208 32972 ft 498 kts 21°
2026-05-07 22:28 -8.60101 -38.58339 32982 ft 497 kts 21°
2026-05-07 22:29 -8.53813 -38.55454 32982 ft 496 kts 21°
2026-05-07 22:29 -8.47534 -38.52560 32964 ft 496 kts 21°
2026-05-07 22:30 -8.41259 -38.49668 32972 ft 496 kts 21°
2026-05-07 22:30 -8.35021 -38.46795 32975 ft 496 kts 21°
2026-05-07 22:31 -8.28738 -38.43903 32969 ft 496 kts 21°
2026-05-07 22:31 -8.22456 -38.41019 32979 ft 496 kts 20°
2026-05-07 22:32 -8.16180 -38.38143 32963 ft 495 kts 20°
2026-05-07 22:32 -8.09955 -38.35289 32971 ft 494 kts 20°
2026-05-07 22:33 -8.03697 -38.32421 32962 ft 494 kts 20°
2026-05-07 22:33 -7.97443 -38.29555 32973 ft 494 kts 20°
2026-05-07 22:34 -7.91191 -38.26691 32975 ft 494 kts 20°
2026-05-07 22:34 -7.84936 -38.23827 32977 ft 494 kts 20°
2026-05-07 22:35 -7.78722 -38.20981 32972 ft 494 kts 20°
2026-05-07 22:35 -7.72461 -38.18121 32969 ft 494 kts 20°
2026-05-07 22:36 -7.66206 -38.15273 32972 ft 493 kts 20°
2026-05-07 22:36 -7.59960 -38.12428 32966 ft 492 kts 20°
2026-05-07 22:37 -7.53760 -38.09604 32968 ft 492 kts 20°
2026-05-07 22:37 -7.47521 -38.06763 32958 ft 492 kts 20°
2026-05-07 22:38 -7.41296 -38.03929 32959 ft 491 kts 21°
2026-05-07 22:38 -7.35075 -38.01097 32957 ft 490 kts 21°
2026-05-07 22:39 -7.28899 -37.98287 32953 ft 490 kts 21°
2026-05-07 22:39 -7.22682 -37.95458 32951 ft 490 kts 21°
2026-05-07 22:40 -7.16471 -37.92634 32947 ft 489 kts 21°
2026-05-07 22:40 -7.10274 -37.89809 32948 ft 489 kts 21°
2026-05-07 22:41 -7.04124 -37.86999 32943 ft 488 kts 21°
2026-05-07 22:41 -6.97940 -37.84175 32951 ft 488 kts 21°
2026-05-07 22:42 -6.91760 -37.81355 32948 ft 488 kts 21°
2026-05-07 22:42 -6.85578 -37.78535 32949 ft 488 kts 21°
2026-05-07 22:43 -6.79439 -37.75736 32950 ft 488 kts 21°
2026-05-07 22:43 -6.73252 -37.72924 32956 ft 488 kts 21°
2026-05-07 22:44 -6.67069 -37.70116 32956 ft 488 kts 21°
2026-05-07 22:44 -6.60887 -37.67308 32950 ft 487 kts 21°
2026-05-07 22:45 -6.54748 -37.64519 32954 ft 487 kts 21°
2026-05-07 22:45 -6.48567 -37.61712 32959 ft 487 kts 21°
2026-05-07 22:46 -6.42386 -37.58905 32957 ft 487 kts 21°
2026-05-07 22:46 -6.36245 -37.56117 32960 ft 487 kts 21°
2026-05-07 22:47 -6.30064 -37.53312 32955 ft 488 kts 21°
2026-05-07 22:47 -6.23879 -37.50507 32956 ft 488 kts 21°
2026-05-07 22:48 -6.17693 -37.47700 32959 ft 488 kts 21°
2026-05-07 22:48 -6.11510 -37.44896 32959 ft 488 kts 21°
2026-05-07 22:49 -6.05369 -37.42111 32959 ft 487 kts 21°
2026-05-07 22:49 -5.99188 -37.39313 32956 ft 487 kts 21°
2026-05-07 22:50 -5.93005 -37.36526 32957 ft 487 kts 21°
2026-05-07 22:50 -5.86862 -37.33756 32951 ft 487 kts 21°
2026-05-07 22:51 -5.80678 -37.30966 32957 ft 487 kts 21°
2026-05-07 22:51 -5.74493 -37.28174 32954 ft 487 kts 22°
2026-05-07 22:52 -5.68326 -37.25350 32958 ft 487 kts 22°
2026-05-07 22:52 -5.62202 -37.22535 32956 ft 488 kts 22°
2026-05-07 22:53 -5.56033 -37.19706 32959 ft 487 kts 22°
2026-05-07 22:53 -5.49862 -37.16879 32955 ft 487 kts 22°
2026-05-07 22:54 -5.43692 -37.14056 32957 ft 487 kts 22°
2026-05-07 22:54 -5.37567 -37.11267 32957 ft 487 kts 22°
2026-05-07 22:55 -5.31402 -37.08462 32954 ft 486 kts 22°
2026-05-07 22:55 -5.25241 -37.05657 32955 ft 486 kts 22°
2026-05-07 22:56 -5.19077 -37.02850 32959 ft 486 kts 22°
2026-05-07 22:56 -5.12963 -37.00067 32962 ft 486 kts 23°
2026-05-07 22:57 -5.06808 -36.97265 32963 ft 486 kts 23°
2026-05-07 22:57 -5.00651 -36.94463 32961 ft 485 kts 23°
2026-05-07 22:58 -4.94505 -36.91666 32963 ft 485 kts 23°
2026-05-07 22:58 -4.88404 -36.88877 32961 ft 485 kts 23°
2026-05-07 22:59 -4.82269 -36.86067 32964 ft 484 kts 23°
2026-05-07 22:59 -4.76153 -36.83269 32959 ft 483 kts 23°
2026-05-07 23:00 -4.70049 -36.80478 32960 ft 482 kts 23°
2026-05-07 23:00 -4.63996 -36.77717 32963 ft 481 kts 22°
2026-05-07 23:01 -4.57904 -36.74941 32961 ft 481 kts 22°
2026-05-07 23:01 -4.51811 -36.72164 32961 ft 481 kts 22°
2026-05-07 23:02 -4.45729 -36.69391 32957 ft 480 kts 23°
2026-05-07 23:02 -4.39694 -36.66641 32959 ft 480 kts 23°
2026-05-07 23:03 -4.33617 -36.63871 32963 ft 480 kts 23°
2026-05-07 23:03 -4.27540 -36.61102 32962 ft 480 kts 23°
2026-05-07 23:04 -4.21458 -36.58331 32968 ft 481 kts 23°
2026-05-07 23:04 -4.15406 -36.55575 32966 ft 481 kts 23°
2026-05-07 23:05 -4.09308 -36.52797 32965 ft 482 kts 23°
2026-05-07 23:05 -4.03211 -36.50021 32969 ft 482 kts 23°
2026-05-07 23:06 -3.97108 -36.47242 32960 ft 482 kts 23°
2026-05-07 23:06 -3.91045 -36.44483 32967 ft 482 kts 23°
2026-05-07 23:07 -3.84937 -36.41703 32971 ft 482 kts 23°
2026-05-07 23:07 -3.78827 -36.38923 32971 ft 482 kts 23°
2026-05-07 23:08 -3.72717 -36.36143 32972 ft 482 kts 23°
2026-05-07 23:08 -3.66649 -36.33382 32972 ft 482 kts 23°
2026-05-07 23:09 -3.60542 -36.30605 32970 ft 482 kts 23°
2026-05-07 23:09 -3.54444 -36.27831 32969 ft 481 kts 23°
2026-05-07 23:10 -3.48350 -36.25060 32971 ft 481 kts 23°
2026-05-07 23:10 -3.42305 -36.22312 32972 ft 480 kts 23°
2026-05-07 23:11 -3.36229 -36.19550 32971 ft 479 kts 23°
2026-05-07 23:11 -3.30157 -36.16790 32973 ft 479 kts 23°
2026-05-07 23:12 -3.24087 -36.14032 32973 ft 479 kts 23°
2026-05-07 23:12 -3.18055 -36.11291 32969 ft 479 kts 24°
2026-05-07 23:13 -3.11975 -36.08529 32969 ft 480 kts 24°
2026-05-07 23:13 -3.05900 -36.05769 32971 ft 479 kts 24°
2026-05-07 23:14 -2.99838 -36.03015 32963 ft 478 kts 24°
2026-05-07 23:14 -2.93829 -36.00286 32966 ft 477 kts 24°
2026-05-07 23:15 -2.87780 -35.97539 32969 ft 478 kts 24°
2026-05-07 23:15 -2.81728 -35.94791 32969 ft 479 kts 24°
2026-05-07 23:16 -2.75654 -35.92034 32960 ft 482 kts 24°
2026-05-07 23:16 -2.69541 -35.89260 32984 ft 490 kts 24°
2026-05-07 23:17 -2.63321 -35.86437 32970 ft 492 kts 24°
2026-05-07 23:17 -2.57091 -35.83609 32973 ft 491 kts 24°
2026-05-07 23:18 -2.50871 -35.80786 32966 ft 490 kts 24°
2026-05-07 23:18 -2.44699 -35.77986 32962 ft 492 kts 25°
2026-05-07 23:19 -2.38441 -35.75146 32979 ft 496 kts 25°
2026-05-07 23:19 -2.32137 -35.72285 32981 ft 499 kts 25°
2026-05-07 23:20 -2.25793 -35.69407 32977 ft 501 kts 25°
2026-05-07 23:20 -2.19486 -35.66547 32971 ft 501 kts 25°
2026-05-07 23:21 -2.13150 -35.63673 32968 ft 499 kts 25°
2026-05-07 23:21 -2.06839 -35.60811 32967 ft 497 kts 25°
2026-05-07 23:22 -2.00550 -35.57959 32967 ft 496 kts 25°
2026-05-07 23:22 -1.94314 -35.55131 32969 ft 495 kts 25°
2026-05-07 23:23 -1.88040 -35.52286 32973 ft 495 kts 25°
2026-05-07 23:23 -1.81759 -35.49437 32968 ft 496 kts 24°
2026-05-07 23:24 -1.75458 -35.46581 32978 ft 498 kts 25°
2026-05-07 23:24 -1.69339 -35.43395 33041 ft 501 kts 29°
2026-05-07 23:24 -1.66287 -35.41704 33206 ft 501 kts 29°
2026-05-07 23:25 -1.63246 -35.40015 33468 ft 500 kts 29°
2026-05-07 23:25 -1.60208 -35.38330 33710 ft 498 kts 29°
2026-05-07 23:25 -1.57179 -35.36655 33911 ft 498 kts 29°
2026-05-07 23:25 -1.54144 -35.34982 34074 ft 498 kts 28°
2026-05-07 23:26 -1.51105 -35.33311 34163 ft 500 kts 28°
2026-05-07 23:26 -1.48093 -35.31658 34290 ft 500 kts 28°
2026-05-07 23:26 -1.45044 -35.29985 34474 ft 499 kts 28°
2026-05-07 23:26 -1.42001 -35.28316 34665 ft 498 kts 28°
2026-05-07 23:27 -1.35922 -35.24981 34880 ft 500 kts 28°
2026-05-07 23:27 -1.29823 -35.21634 34963 ft 500 kts 28°
2026-05-07 23:28 -1.23777 -35.18315 34966 ft 498 kts 28°
2026-05-07 23:28 -1.17712 -35.14986 34970 ft 497 kts 28°
2026-05-07 23:29 -1.11655 -35.11662 34968 ft 497 kts 28°
2026-05-07 23:29 -1.05593 -35.08336 34968 ft 497 kts 28°
2026-05-07 23:30 -0.99564 -35.05028 34971 ft 498 kts 28°
2026-05-07 23:30 -0.93485 -35.01692 34971 ft 499 kts 28°
2026-05-07 23:31 -0.87416 -34.98362 34975 ft 497 kts 28°
2026-05-07 23:31 -0.81370 -34.95045 34965 ft 495 kts 28°
2026-05-07 23:32 -0.75393 -34.91765 34966 ft 493 kts 28°
2026-05-07 23:32 -0.69395 -34.88474 34969 ft 491 kts 28°
2026-05-07 23:33 -0.63404 -34.85187 34973 ft 491 kts 28°
2026-05-07 23:33 -0.57412 -34.81901 34972 ft 492 kts 28°
2026-05-07 23:34 -0.51452 -34.78631 34972 ft 492 kts 28°
2026-05-07 23:34 -0.45445 -34.75335 34971 ft 493 kts 28°
2026-05-07 23:35 -0.39423 -34.72031 34971 ft 494 kts 28°
2026-05-07 23:35 -0.33396 -34.68725 34970 ft 494 kts 28°
2026-05-07 23:36 -0.27410 -34.65442 34967 ft 494 kts 28°
2026-05-07 23:36 -0.21380 -34.62134 34968 ft 494 kts 28°
2026-05-07 23:37 -0.15354 -34.58828 34967 ft 494 kts 28°
2026-05-07 23:37 -0.09332 -34.55525 34966 ft 494 kts 28°
2026-05-07 23:38 -0.03356 -34.52247 34970 ft 493 kts 28°
2026-05-07 23:38 0.02659 -34.48947 34972 ft 493 kts 28°
2026-05-07 23:39 0.08671 -34.45649 34964 ft 493 kts 28°
2026-05-07 23:39 0.14643 -34.42373 34968 ft 493 kts 28°
2026-05-07 23:40 0.20660 -34.39073 34967 ft 493 kts 28°
2026-05-07 23:40 0.26674 -34.35774 34967 ft 494 kts 28°
2026-05-07 23:41 0.32697 -34.32470 34970 ft 494 kts 28°
2026-05-07 23:41 0.38683 -34.29186 34973 ft 494 kts 28°
2026-05-07 23:42 0.44719 -34.25875 34971 ft 495 kts 28°
2026-05-07 23:42 0.50755 -34.22563 34969 ft 495 kts 28°
2026-05-07 23:43 0.56795 -34.19249 34966 ft 496 kts 28°
2026-05-07 23:43 0.62848 -34.15928 34975 ft 497 kts 28°
2026-05-07 23:44 0.68873 -34.12623 34971 ft 498 kts 28°
2026-05-07 23:44 0.74963 -34.09281 34977 ft 500 kts 28°
2026-05-07 23:45 0.81065 -34.05932 34972 ft 501 kts 28°
2026-05-07 23:45 0.87184 -34.02574 34970 ft 502 kts 28°
2026-05-07 23:46 0.93268 -33.99236 34967 ft 502 kts 28°
2026-05-07 23:46 0.99393 -33.95873 34963 ft 503 kts 28°
2026-05-07 23:47 1.05524 -33.92507 34965 ft 503 kts 28°
2026-05-07 23:47 1.11652 -33.89141 34964 ft 503 kts 28°
2026-05-07 23:48 1.17744 -33.85796 34964 ft 503 kts 28°
2026-05-07 23:48 1.23874 -33.82430 34964 ft 503 kts 28°
2026-05-07 23:49 1.29998 -33.79067 34964 ft 502 kts 29°
2026-05-07 23:49 1.36120 -33.75704 34963 ft 502 kts 29°
2026-05-07 23:50 1.42195 -33.72367 34964 ft 501 kts 29°
2026-05-07 23:50 1.48306 -33.69010 34965 ft 501 kts 29°
2026-05-07 23:51 1.54424 -33.65649 34964 ft 502 kts 29°
2026-05-07 23:51 1.60545 -33.62286 34967 ft 502 kts 29°
2026-05-07 23:52 1.66625 -33.58945 34964 ft 502 kts 29°
2026-05-07 23:52 1.72746 -33.55581 34964 ft 502 kts 29°
2026-05-07 23:53 1.78867 -33.52218 34969 ft 502 kts 29°
2026-05-07 23:53 1.84989 -33.48854 34965 ft 502 kts 29°
2026-05-07 23:54 1.91066 -33.45513 34964 ft 502 kts 29°
2026-05-07 23:54 1.97183 -33.42149 34966 ft 501 kts 29°
2026-05-07 23:55 2.03288 -33.38792 34960 ft 501 kts 29°
2026-05-07 23:55 2.09388 -33.35437 34961 ft 500 kts 29°
2026-05-07 23:56 2.15479 -33.32087 34964 ft 500 kts 29°
2026-05-07 23:56 2.21528 -33.28759 34964 ft 499 kts 29°
2026-05-07 23:57 2.27614 -33.25411 34965 ft 499 kts 29°
2026-05-07 23:57 2.33699 -33.22063 34962 ft 499 kts 29°
2026-05-07 23:58 2.39749 -33.18734 34962 ft 500 kts 29°
2026-05-07 23:58 2.45840 -33.15382 34962 ft 500 kts 29°
2026-05-07 23:59 2.51932 -33.12029 34962 ft 500 kts 29°
2026-05-07 23:59 2.58023 -33.08676 34962 ft 500 kts 29°
2026-05-08 00:00 2.64114 -33.05323 34962 ft 500 kts 29°
2026-05-08 00:00 2.70167 -33.01991 34965 ft 500 kts 29°
2026-05-08 00:01 2.76267 -32.98632 34963 ft 500 kts 29°
2026-05-08 00:01 2.82365 -32.95274 34961 ft 501 kts 29°
2026-05-08 00:02 2.88466 -32.91914 34962 ft 501 kts 29°
2026-05-08 00:02 2.94528 -32.88575 34959 ft 500 kts 29°
2026-05-08 00:03 3.00627 -32.85215 34965 ft 500 kts 29°
2026-05-08 00:03 3.06721 -32.81857 34964 ft 500 kts 29°
2026-05-08 00:04 3.12813 -32.78500 34961 ft 500 kts 29°
2026-05-08 00:04 3.18865 -32.75165 34961 ft 500 kts 29°
2026-05-08 00:05 3.24953 -32.71809 34964 ft 500 kts 29°
2026-05-08 00:05 3.31045 -32.68450 34964 ft 500 kts 29°
2026-05-08 00:06 3.37135 -32.65092 34967 ft 500 kts 29°
2026-05-08 00:06 3.43189 -32.61753 34965 ft 500 kts 29°
2026-05-08 00:07 3.49281 -32.58398 34966 ft 500 kts 29°
2026-05-08 00:07 3.55374 -32.55045 34963 ft 499 kts 29°
2026-05-08 00:08 3.61461 -32.51693 34964 ft 499 kts 29°
2026-05-08 00:08 3.67544 -32.48341 34965 ft 499 kts 29°
2026-05-08 00:09 3.73591 -32.45009 34968 ft 499 kts 29°
2026-05-08 00:09 3.79679 -32.41653 34967 ft 500 kts 29°
2026-05-08 00:10 3.85769 -32.38296 34964 ft 500 kts 29°
2026-05-08 00:10 3.90832 -32.35505 34963 ft 500 kts 29°
2026-05-08 00:11 3.97915 -32.31599 34966 ft 500 kts 29°
2026-05-08 00:11 4.04016 -32.28234 34965 ft 501 kts 29°
2026-05-08 00:12 4.09085 -32.25438 34964 ft 501 kts 29°
2026-05-08 00:12 4.15192 -32.22069 34967 ft 501 kts 29°
2026-05-08 00:13 4.22282 -32.18157 34962 ft 501 kts 29°
2026-05-08 00:13 4.27358 -32.15355 34968 ft 501 kts 29°
2026-05-08 00:14 4.33472 -32.11980 34967 ft 502 kts 29°
2026-05-08 00:14 4.39589 -32.08604 34964 ft 502 kts 29°
2026-05-08 00:15 4.46697 -32.04678 34967 ft 502 kts 29°
2026-05-08 00:15 4.51783 -32.01869 34967 ft 502 kts 29°
2026-05-08 00:16 4.57905 -31.98487 34966 ft 502 kts 29°
2026-05-08 00:16 4.64028 -31.95104 34968 ft 503 kts 29°
2026-05-08 00:17 4.70155 -31.91718 34970 ft 503 kts 29°
2026-05-08 00:17 4.76237 -31.88356 34970 ft 503 kts 29°
2026-05-08 00:18 4.82365 -31.84968 34969 ft 503 kts 29°
2026-05-08 00:18 4.88489 -31.81581 34970 ft 503 kts 29°
2026-05-08 00:19 4.94616 -31.78193 34969 ft 503 kts 29°
2026-05-08 00:19 5.00700 -31.74827 34970 ft 503 kts 29°
2026-05-08 00:20 5.06831 -31.71434 34970 ft 503 kts 29°
2026-05-08 00:20 5.12962 -31.68040 34970 ft 503 kts 29°
2026-05-08 00:21 5.19091 -31.64646 34975 ft 503 kts 29°
2026-05-08 00:21 5.25177 -31.61265 34969 ft 504 kts 29°
2026-05-08 00:22 5.31292 -31.57828 34973 ft 504 kts 29°
2026-05-08 00:22 5.37400 -31.54386 34972 ft 504 kts 29°
2026-05-08 00:23 5.43513 -31.50945 34975 ft 504 kts 29°
2026-05-08 00:23 5.49626 -31.47507 34971 ft 503 kts 29°
2026-05-08 00:24 5.55693 -31.44094 34971 ft 503 kts 29°
2026-05-08 00:24 5.61798 -31.40660 34976 ft 503 kts 29°
2026-05-08 00:25 5.67906 -31.37223 34972 ft 503 kts 29°
2026-05-08 00:25 5.74011 -31.33786 34972 ft 503 kts 29°
2026-05-08 00:26 5.80077 -31.30371 34972 ft 503 kts 29°
2026-05-08 00:26 5.86184 -31.26931 34976 ft 503 kts 29°
2026-05-08 00:27 5.92294 -31.23489 34976 ft 504 kts 29°
2026-05-08 00:27 5.98405 -31.20045 34975 ft 504 kts 29°
2026-05-08 00:28 6.04476 -31.16624 34976 ft 504 kts 29°
2026-05-08 00:28 6.10591 -31.13177 34975 ft 504 kts 29°
2026-05-08 00:29 6.16700 -31.09731 34978 ft 504 kts 29°
2026-05-08 00:29 6.22814 -31.06283 34978 ft 504 kts 29°
2026-05-08 00:30 6.28882 -31.02859 34977 ft 504 kts 29°
2026-05-08 00:30 6.34993 -30.99410 34978 ft 504 kts 29°
2026-05-08 00:31 6.41104 -30.95960 34982 ft 504 kts 29°
2026-05-08 00:31 6.47215 -30.92509 34980 ft 504 kts 29°
2026-05-08 00:32 6.53279 -30.89084 34984 ft 503 kts 28°
2026-05-08 00:32 6.59387 -30.85633 34980 ft 504 kts 28°
2026-05-08 00:33 6.65503 -30.82177 34978 ft 504 kts 28°
2026-05-08 00:33 6.71622 -30.78718 34978 ft 505 kts 28°
2026-05-08 00:34 6.77702 -30.75279 34979 ft 505 kts 28°
2026-05-08 00:34 6.83824 -30.71816 34980 ft 505 kts 28°
2026-05-08 00:35 6.89945 -30.68352 34978 ft 505 kts 28°
2026-05-08 00:35 6.96070 -30.64886 34982 ft 505 kts 28°
2026-05-08 00:36 7.02159 -30.61439 34980 ft 505 kts 28°
2026-05-08 00:36 7.08288 -30.57968 34981 ft 505 kts 28°
2026-05-08 00:37 7.14413 -30.54497 34983 ft 505 kts 28°
2026-05-08 00:38 7.23606 -30.49288 34984 ft 506 kts 28°
2026-05-08 00:38 7.29700 -30.45833 34984 ft 506 kts 28°
2026-05-08 00:39 7.35837 -30.42352 34979 ft 506 kts 28°
2026-05-08 00:39 7.41975 -30.38870 34984 ft 507 kts 28°
2026-05-08 00:40 7.48122 -30.35381 34980 ft 507 kts 28°
2026-05-08 00:40 7.54227 -30.31916 34982 ft 507 kts 28°
2026-05-08 00:41 7.60377 -30.28423 34983 ft 507 kts 28°
2026-05-08 00:41 7.66529 -30.24928 34987 ft 508 kts 28°
2026-05-08 00:42 7.72683 -30.21432 34986 ft 508 kts 28°
2026-05-08 00:42 7.78800 -30.17954 34986 ft 508 kts 28°
2026-05-08 00:43 7.84960 -30.14452 34987 ft 508 kts 28°
2026-05-08 00:43 7.91115 -30.10950 34988 ft 508 kts 27°
2026-05-08 00:44 7.97271 -30.07447 34988 ft 508 kts 28°
2026-05-08 00:44 8.03427 -30.03943 34989 ft 508 kts 28°
2026-05-08 00:45 8.09537 -30.00464 34988 ft 508 kts 28°
2026-05-08 00:45 8.15690 -29.96959 34989 ft 508 kts 28°
2026-05-08 00:46 8.21839 -29.93454 34991 ft 508 kts 28°
2026-05-08 00:46 8.27992 -29.89946 34989 ft 508 kts 27°
2026-05-08 00:47 8.34097 -29.86465 34991 ft 507 kts 27°
2026-05-08 00:47 8.40243 -29.82958 34988 ft 507 kts 27°
2026-05-08 00:48 8.46387 -29.79451 34988 ft 507 kts 27°
2026-05-08 00:48 8.52531 -29.75945 34990 ft 507 kts 27°
2026-05-08 00:49 8.58639 -29.72462 34992 ft 508 kts 27°
2026-05-08 00:49 8.64796 -29.68948 34992 ft 508 kts 27°
2026-05-08 00:50 8.70952 -29.65432 34992 ft 509 kts 27°
2026-05-08 00:50 8.77120 -29.61908 34991 ft 509 kts 27°
2026-05-08 00:51 8.83244 -29.58407 34994 ft 509 kts 27°
2026-05-08 00:51 8.89415 -29.54879 34991 ft 509 kts 27°
2026-05-08 00:52 8.95578 -29.51353 34990 ft 509 kts 27°
2026-05-08 00:52 9.01737 -29.47828 34994 ft 508 kts 27°
2026-05-08 00:53 9.07847 -29.44331 34991 ft 508 kts 27°
2026-05-08 00:53 9.13998 -29.40808 34995 ft 508 kts 27°
2026-05-08 00:54 9.20140 -29.37289 34997 ft 508 kts 27°
2026-05-08 00:54 9.26287 -29.33766 34999 ft 507 kts 27°
2026-05-08 00:55 9.32380 -29.30272 34996 ft 506 kts 27°
2026-05-08 00:55 9.38504 -29.26758 34992 ft 505 kts 27°
2026-05-08 00:56 9.44617 -29.23250 34995 ft 505 kts 27°
2026-05-08 00:56 9.50724 -29.19744 34996 ft 505 kts 27°
2026-05-08 00:57 9.56836 -29.16234 34991 ft 505 kts 27°
2026-05-08 00:57 9.62910 -29.12743 34996 ft 505 kts 27°
2026-05-08 00:58 9.69025 -29.09228 34996 ft 506 kts 27°
2026-05-08 00:58 9.75144 -29.05708 34994 ft 506 kts 27°
2026-05-08 00:59 9.81228 -29.02207 34996 ft 506 kts 27°
2026-05-08 00:59 9.87351 -28.98683 34993 ft 506 kts 27°
2026-05-08 01:00 9.93475 -28.95154 35001 ft 506 kts 26°
2026-05-08 01:00 9.99603 -28.91621 34995 ft 507 kts 26°
2026-05-08 01:01 10.05733 -28.88085 35000 ft 507 kts 26°
2026-05-08 01:01 10.11824 -28.84570 34996 ft 507 kts 26°
2026-05-08 01:02 10.17961 -28.81028 35001 ft 507 kts 26°
2026-05-08 01:02 10.24094 -28.77485 34999 ft 507 kts 26°
2026-05-08 01:03 10.30224 -28.73943 35004 ft 507 kts 26°
2026-05-08 01:03 10.36363 -28.70394 35000 ft 508 kts 26°
2026-05-08 01:04 10.42464 -28.66866 35003 ft 508 kts 26°
2026-05-08 01:04 10.48610 -28.63310 35001 ft 508 kts 26°
2026-05-08 01:05 10.54756 -28.59752 35004 ft 509 kts 26°
2026-05-08 01:05 10.60906 -28.56190 35003 ft 509 kts 26°
2026-05-08 01:06 10.67019 -28.52648 35006 ft 510 kts 25°
2026-05-08 01:06 10.73187 -28.49073 35007 ft 510 kts 26°
2026-05-08 01:07 10.79359 -28.45493 35001 ft 511 kts 26°
2026-05-08 01:07 10.85536 -28.41909 35003 ft 511 kts 26°
2026-05-08 01:08 10.91673 -28.38346 35004 ft 511 kts 26°
2026-05-08 01:08 10.97854 -28.34756 35008 ft 512 kts 25°
2026-05-08 01:09 11.04044 -28.31160 35006 ft 513 kts 25°
2026-05-08 01:09 11.10246 -28.27555 35007 ft 514 kts 25°
2026-05-08 01:10 11.16459 -28.23940 35008 ft 514 kts 25°
2026-05-08 01:10 11.22632 -28.20348 35004 ft 515 kts 25°
2026-05-08 01:11 11.28851 -28.16727 35005 ft 515 kts 25°
2026-05-08 01:11 11.35067 -28.13106 35009 ft 515 kts 25°
2026-05-08 01:12 11.41294 -28.09477 35001 ft 516 kts 25°
2026-05-08 01:12 11.47480 -28.05869 35004 ft 516 kts 25°
2026-05-08 01:13 11.53711 -28.02234 35006 ft 516 kts 25°
2026-05-08 01:13 11.59951 -27.98592 35012 ft 517 kts 25°
2026-05-08 01:14 11.66190 -27.94948 35023 ft 517 kts 25°
2026-05-08 01:14 11.72436 -27.91298 35023 ft 518 kts 25°
2026-05-08 01:15 11.78657 -27.87662 35003 ft 519 kts 25°
2026-05-08 01:15 11.84927 -27.83994 35005 ft 520 kts 25°
2026-05-08 01:16 11.91202 -27.80321 35022 ft 520 kts 25°
2026-05-08 01:16 11.97434 -27.76671 35009 ft 520 kts 25°
2026-05-08 01:17 12.03709 -27.72995 35017 ft 520 kts 25°
2026-05-08 01:17 12.09986 -27.69315 35016 ft 520 kts 25°
2026-05-08 01:18 12.16267 -27.65631 35014 ft 521 kts 25°
2026-05-08 01:18 12.22548 -27.61945 35013 ft 521 kts 25°
2026-05-08 01:19 12.28785 -27.58283 35018 ft 521 kts 25°
2026-05-08 01:19 12.35067 -27.54592 35028 ft 521 kts 25°
2026-05-08 01:20 12.41347 -27.50901 35016 ft 521 kts 25°
2026-05-08 01:20 12.47626 -27.47207 35012 ft 520 kts 25°
2026-05-08 01:21 12.53862 -27.43538 35017 ft 521 kts 25°
2026-05-08 01:21 12.60142 -27.39840 35018 ft 521 kts 25°
2026-05-08 01:22 12.66429 -27.36136 35017 ft 521 kts 25°
2026-05-08 01:22 12.72719 -27.32428 35028 ft 521 kts 25°
2026-05-08 01:23 12.78958 -27.28748 35018 ft 521 kts 25°
2026-05-08 01:23 12.85229 -27.25046 35013 ft 520 kts 25°
2026-05-08 01:24 12.91494 -27.21346 35016 ft 519 kts 25°
2026-05-08 01:24 12.97750 -27.17650 35019 ft 519 kts 25°
2026-05-08 01:25 13.03964 -27.13977 35015 ft 520 kts 25°
2026-05-08 01:25 13.10231 -27.10270 35023 ft 521 kts 25°
2026-05-08 01:26 13.16511 -27.06553 35021 ft 522 kts 25°
2026-05-08 01:26 13.22801 -27.02828 35023 ft 522 kts 25°
2026-05-08 01:27 13.29050 -26.99124 35021 ft 522 kts 25°
2026-05-08 01:27 13.35343 -26.95391 35020 ft 522 kts 25°
2026-05-08 01:28 13.41629 -26.91662 35030 ft 521 kts 25°
2026-05-08 01:28 13.47894 -26.87941 35016 ft 519 kts 25°
2026-05-08 01:29 13.54097 -26.84256 35016 ft 518 kts 25°
2026-05-08 01:29 13.60330 -26.80551 35025 ft 517 kts 25°
2026-05-08 01:30 13.66566 -26.76843 35025 ft 518 kts 25°
2026-05-08 01:30 13.72804 -26.73130 35041 ft 518 kts 25°
2026-05-08 01:31 13.79006 -26.69437 35028 ft 518 kts 26°
2026-05-08 01:31 13.85239 -26.65722 35022 ft 518 kts 26°
2026-05-08 01:32 13.91465 -26.62009 35018 ft 517 kts 26°
2026-05-08 01:32 13.97685 -26.58298 35023 ft 516 kts 26°
2026-05-08 01:33 14.03859 -26.54612 35019 ft 516 kts 26°
2026-05-08 01:33 14.10075 -26.50898 35033 ft 517 kts 26°
2026-05-08 01:34 14.16291 -26.47182 35018 ft 516 kts 26°
2026-05-08 01:34 14.22498 -26.43469 35020 ft 516 kts 26°
2026-05-08 01:35 14.28697 -26.39757 35023 ft 515 kts 26°
2026-05-08 01:35 14.34853 -26.36070 35040 ft 515 kts 26°
2026-05-08 01:36 14.41072 -26.32345 35222 ft 518 kts 26°
2026-05-08 01:36 14.44183 -26.30481 35509 ft 516 kts 26°
2026-05-08 01:36 14.47275 -26.28625 35808 ft 514 kts 26°
2026-05-08 01:36 14.50360 -26.26774 36064 ft 513 kts 26°
2026-05-08 01:37 14.53445 -26.24923 36242 ft 513 kts 26°
2026-05-08 01:37 14.56491 -26.23095 36379 ft 514 kts 26°
2026-05-08 01:37 14.59586 -26.21237 36562 ft 514 kts 26°
2026-05-08 01:37 14.62678 -26.19380 36774 ft 514 kts 26°
2026-05-08 01:38 14.65765 -26.17524 36934 ft 514 kts 26°
2026-05-08 01:38 14.71961 -26.13799 37023 ft 516 kts 26°
2026-05-08 01:39 14.78157 -26.10071 37030 ft 513 kts 26°
2026-05-08 01:39 14.84260 -26.06394 37021 ft 509 kts 26°
2026-05-08 01:40 14.90370 -26.02712 37024 ft 507 kts 26°
2026-05-08 01:40 14.96468 -25.99038 37026 ft 507 kts 26°
2026-05-08 01:41 15.02572 -25.95357 37026 ft 508 kts 26°
2026-05-08 01:41 15.08651 -25.91688 37025 ft 510 kts 26°
2026-05-08 01:42 15.14786 -25.87982 37033 ft 511 kts 26°
2026-05-08 01:42 15.20921 -25.84273 37024 ft 511 kts 26°
2026-05-08 01:43 15.27051 -25.80564 37020 ft 509 kts 26°
2026-05-08 01:43 15.33167 -25.76862 37025 ft 508 kts 26°
2026-05-08 01:44 15.39218 -25.73196 37029 ft 507 kts 26°
2026-05-08 01:44 15.45306 -25.69506 37039 ft 506 kts 26°
2026-05-08 01:45 15.51368 -25.65829 37024 ft 503 kts 27°
2026-05-08 01:45 15.57398 -25.62169 37009 ft 501 kts 26°
2026-05-08 01:46 15.63369 -25.58542 37034 ft 500 kts 26°
2026-05-08 01:46 15.69378 -25.54891 37034 ft 501 kts 26°
2026-05-08 01:47 15.75400 -25.51229 37032 ft 502 kts 26°
2026-05-08 01:47 15.81432 -25.47558 37048 ft 502 kts 27°
2026-05-08 01:48 15.90398 -25.42095 37021 ft 498 kts 27°
2026-05-08 01:48 15.96358 -25.38460 37021 ft 495 kts 27°
2026-05-08 01:49 16.02288 -25.34842 37023 ft 494 kts 27°
2026-05-08 01:49 16.08208 -25.31228 37030 ft 493 kts 27°
2026-05-08 01:50 16.14088 -25.27636 37035 ft 494 kts 27°
2026-05-08 01:50 16.19994 -25.24025 37015 ft 490 kts 28°
2026-05-08 01:51 16.25854 -25.20439 37011 ft 486 kts 28°
2026-05-08 01:51 16.31669 -25.16878 37003 ft 484 kts 28°
2026-05-08 01:52 16.37421 -25.13355 37008 ft 483 kts 28°
2026-05-08 01:52 16.43209 -25.09807 37007 ft 483 kts 28°
2026-05-08 01:53 16.49014 -25.06246 37008 ft 484 kts 28°
2026-05-08 01:53 16.54827 -25.02677 37015 ft 486 kts 28°
2026-05-08 01:54 16.60617 -24.99119 37007 ft 487 kts 28°
2026-05-08 01:54 16.66466 -24.95524 37019 ft 489 kts 28°
2026-05-08 01:55 16.72335 -24.91912 37018 ft 490 kts 28°
2026-05-08 01:55 16.78213 -24.88293 37019 ft 491 kts 28°
2026-05-08 01:56 16.84104 -24.84663 37030 ft 490 kts 28°
2026-05-08 01:56 16.89849 -24.81118 36998 ft 478 kts 28°
2026-05-08 01:57 16.95586 -24.77578 37012 ft 480 kts 28°
2026-05-08 01:57 17.01342 -24.74025 37031 ft 481 kts 28°
2026-05-08 01:58 17.07115 -24.70458 37029 ft 483 kts 28°
2026-05-08 01:58 17.12866 -24.66902 37033 ft 484 kts 28°
2026-05-08 01:59 17.18676 -24.63306 37045 ft 485 kts 28°
2026-05-08 01:59 17.24484 -24.59708 37037 ft 484 kts 28°
2026-05-08 02:00 17.30266 -24.56124 37030 ft 482 kts 28°
2026-05-08 02:00 17.35979 -24.52581 37031 ft 479 kts 28°
2026-05-08 02:01 17.41703 -24.49028 37034 ft 478 kts 28°
2026-05-08 02:01 17.47415 -24.45480 37037 ft 477 kts 28°
2026-05-08 02:02 17.53129 -24.41928 37044 ft 477 kts 28°
2026-05-08 02:02 17.58806 -24.38397 37045 ft 478 kts 28°
2026-05-08 02:03 17.64527 -24.34834 37037 ft 479 kts 28°
2026-05-08 02:03 17.70253 -24.31266 37039 ft 479 kts 28°
2026-05-08 02:04 17.75989 -24.27692 37039 ft 480 kts 28°
2026-05-08 02:04 17.81727 -24.24116 37039 ft 480 kts 28°
2026-05-08 02:05 17.87427 -24.20559 37044 ft 480 kts 28°
2026-05-08 02:05 17.93161 -24.16978 37032 ft 479 kts 28°
2026-05-08 02:06 17.98887 -24.13399 37041 ft 479 kts 28°
2026-05-08 02:06 18.04607 -24.09820 37046 ft 478 kts 28°
2026-05-08 02:07 18.10284 -24.06266 37052 ft 478 kts 28°
2026-05-08 02:07 18.16003 -24.02683 37048 ft 478 kts 28°
2026-05-08 02:08 18.21724 -23.99097 37042 ft 479 kts 28°
2026-05-08 02:08 18.27445 -23.95506 37037 ft 479 kts 28°
2026-05-08 02:09 18.33126 -23.91939 37036 ft 478 kts 28°
2026-05-08 02:09 18.38841 -23.88347 37035 ft 478 kts 28°
2026-05-08 02:10 18.44554 -23.84754 37038 ft 478 kts 28°
2026-05-08 02:10 18.50265 -23.81159 37047 ft 478 kts 28°
2026-05-08 02:11 18.55930 -23.77591 37050 ft 478 kts 28°
2026-05-08 02:11 18.61634 -23.73995 37048 ft 477 kts 28°
2026-05-08 02:12 18.67331 -23.70400 37044 ft 477 kts 28°
2026-05-08 02:12 18.73021 -23.66807 37043 ft 477 kts 28°
2026-05-08 02:13 18.78710 -23.63213 37043 ft 476 kts 28°
2026-05-08 02:13 18.84355 -23.59643 37044 ft 476 kts 28°
2026-05-08 02:14 18.90043 -23.56042 37047 ft 476 kts 28°
2026-05-08 02:14 18.95726 -23.52442 37042 ft 476 kts 28°
2026-05-08 02:15 19.01407 -23.48841 37041 ft 476 kts 28°
2026-05-08 02:15 19.07046 -23.45263 37044 ft 476 kts 28°
2026-05-08 02:16 19.12722 -23.41659 37051 ft 476 kts 28°
2026-05-08 02:16 19.18401 -23.38050 37045 ft 476 kts 28°
2026-05-08 02:17 19.24082 -23.34437 37052 ft 476 kts 28°
2026-05-08 02:17 19.29725 -23.30845 37044 ft 477 kts 28°
2026-05-08 02:18 19.35410 -23.27223 37043 ft 477 kts 28°
2026-05-08 02:18 19.41092 -23.23601 37043 ft 477 kts 28°
2026-05-08 02:19 19.46776 -23.19974 37041 ft 477 kts 28°
2026-05-08 02:19 19.52418 -23.16371 37041 ft 477 kts 28°
2026-05-08 02:20 19.58101 -23.12738 37051 ft 477 kts 28°
2026-05-08 02:20 19.63783 -23.09104 37046 ft 477 kts 28°
2026-05-08 02:21 19.69470 -23.05463 37040 ft 477 kts 28°
2026-05-08 02:21 19.75157 -23.01819 37042 ft 477 kts 28°
2026-05-08 02:22 19.80805 -22.98197 37041 ft 478 kts 28°
2026-05-08 02:22 19.86492 -22.94547 37041 ft 478 kts 28°
2026-05-08 02:23 19.92178 -22.90894 37040 ft 478 kts 28°
2026-05-08 02:23 19.97866 -22.87237 37041 ft 478 kts 28°
2026-05-08 02:24 20.03514 -22.83603 37042 ft 478 kts 28°
2026-05-08 02:24 20.09202 -22.79940 37042 ft 478 kts 28°
2026-05-08 02:25 20.14888 -22.76274 37045 ft 478 kts 28°
2026-05-08 02:25 20.20577 -22.72604 37039 ft 478 kts 28°
2026-05-08 02:26 20.26265 -22.68932 37046 ft 478 kts 27°
2026-05-08 02:26 20.31926 -22.65273 37045 ft 479 kts 27°
2026-05-08 02:27 20.37623 -22.61589 37035 ft 479 kts 27°
2026-05-08 02:27 20.43323 -22.57899 37039 ft 480 kts 27°
2026-05-08 02:28 20.49028 -22.54202 37041 ft 480 kts 27°
2026-05-08 02:28 20.54692 -22.50528 37041 ft 480 kts 27°
2026-05-08 02:29 20.60396 -22.46826 37044 ft 480 kts 27°
2026-05-08 02:29 20.66104 -22.43118 37032 ft 481 kts 27°
2026-05-08 02:30 20.71818 -22.39402 37050 ft 481 kts 27°
2026-05-08 02:30 20.77496 -22.35707 37054 ft 481 kts 27°
2026-05-08 02:31 20.83217 -22.31980 37054 ft 482 kts 27°
2026-05-08 02:31 20.88938 -22.28250 37036 ft 482 kts 27°
2026-05-08 02:32 20.94659 -22.24516 37045 ft 482 kts 27°
2026-05-08 02:32 21.00389 -22.20774 37040 ft 482 kts 27°
2026-05-08 02:33 21.06078 -22.17054 37041 ft 483 kts 27°
2026-05-08 02:33 21.11811 -22.13302 37041 ft 483 kts 27°
2026-05-08 02:34 21.17547 -22.09545 37041 ft 483 kts 27°
2026-05-08 02:34 21.23247 -22.05808 37041 ft 483 kts 27°
2026-05-08 02:35 21.28979 -22.02046 37054 ft 483 kts 27°
2026-05-08 02:35 21.34715 -21.98278 37043 ft 484 kts 27°
2026-05-08 02:36 21.40450 -21.94508 37045 ft 483 kts 27°
2026-05-08 02:36 21.46151 -21.90759 37043 ft 483 kts 27°
2026-05-08 02:37 21.51880 -21.86985 37041 ft 483 kts 27°
2026-05-08 02:37 21.57607 -21.83209 37046 ft 483 kts 27°
2026-05-08 02:38 21.63336 -21.79427 37062 ft 483 kts 26°
2026-05-08 02:38 21.69070 -21.75639 37043 ft 484 kts 26°
2026-05-08 02:39 21.74761 -21.71876 37049 ft 484 kts 26°
2026-05-08 02:39 21.80491 -21.68083 37048 ft 484 kts 26°
2026-05-08 02:40 21.86222 -21.64287 37040 ft 484 kts 27°
2026-05-08 02:40 21.91953 -21.60486 37039 ft 484 kts 27°
2026-05-08 02:41 21.97645 -21.56708 37048 ft 484 kts 26°
2026-05-08 02:41 22.03375 -21.52900 37043 ft 484 kts 26°
2026-05-08 02:42 22.09100 -21.49093 37043 ft 483 kts 26°
2026-05-08 02:42 22.14823 -21.45283 37050 ft 484 kts 26°
2026-05-08 02:43 22.20548 -21.41468 37042 ft 484 kts 26°
2026-05-08 02:43 22.26238 -21.37674 37045 ft 484 kts 26°
2026-05-08 02:44 22.31970 -21.33846 37051 ft 485 kts 26°
2026-05-08 02:44 22.37705 -21.30014 37040 ft 485 kts 26°
2026-05-08 02:45 22.43434 -21.26181 37038 ft 484 kts 26°
2026-05-08 02:45 22.49126 -21.22369 37038 ft 484 kts 26°
2026-05-08 02:46 22.54855 -21.18530 37038 ft 484 kts 26°
2026-05-08 02:46 22.60576 -21.14691 37043 ft 484 kts 26°
2026-05-08 02:47 22.66303 -21.10845 37042 ft 485 kts 26°
2026-05-08 02:47 22.71995 -21.07019 37038 ft 485 kts 26°
2026-05-08 02:48 22.77729 -21.03160 37036 ft 485 kts 26°
2026-05-08 02:48 22.83462 -20.99298 37035 ft 485 kts 26°
2026-05-08 02:49 22.89194 -20.95432 37036 ft 485 kts 26°
2026-05-08 02:49 22.94885 -20.91590 37035 ft 485 kts 26°
2026-05-08 02:50 23.00615 -20.87718 37044 ft 485 kts 26°
2026-05-08 02:50 23.06349 -20.83840 37034 ft 485 kts 26°
2026-05-08 02:51 23.11108 -20.80620 37042 ft 485 kts 26°
2026-05-08 02:51 23.17762 -20.76115 37034 ft 485 kts 26°
2026-05-08 02:52 23.23496 -20.72229 37036 ft 486 kts 26°
2026-05-08 02:52 23.28260 -20.68995 37037 ft 486 kts 26°
2026-05-08 02:53 23.33994 -20.65099 37036 ft 486 kts 26°
2026-05-08 02:53 23.40664 -20.60563 37030 ft 486 kts 26°
2026-05-08 02:54 23.45470 -20.57290 37031 ft 486 kts 26°
2026-05-08 02:54 23.51168 -20.53407 37030 ft 486 kts 26°
2026-05-08 02:55 23.59768 -20.47538 37029 ft 486 kts 26°
2026-05-08 02:56 23.65502 -20.43621 37022 ft 486 kts 26°
2026-05-08 02:56 23.71196 -20.39726 37035 ft 486 kts 26°
2026-05-08 02:57 23.76928 -20.35801 37028 ft 486 kts 26°
2026-05-08 02:57 23.82659 -20.31872 37030 ft 486 kts 26°
2026-05-08 02:58 23.88385 -20.27944 37032 ft 486 kts 26°
2026-05-08 02:58 23.94072 -20.24038 37027 ft 486 kts 26°
2026-05-08 02:59 23.99800 -20.20099 37034 ft 486 kts 26°
2026-05-08 02:59 24.05531 -20.16154 37030 ft 486 kts 26°
2026-05-08 03:00 24.11257 -20.12208 37029 ft 486 kts 26°
2026-05-08 03:00 24.16948 -20.08283 37030 ft 487 kts 26°
2026-05-08 03:01 24.22676 -20.04327 37023 ft 487 kts 26°
2026-05-08 03:01 24.28409 -20.00364 37044 ft 487 kts 26°
2026-05-08 03:02 24.34145 -19.96395 37027 ft 488 kts 26°
2026-05-08 03:02 24.39848 -19.92444 37023 ft 488 kts 26°
2026-05-08 03:03 24.45587 -19.88463 37019 ft 488 kts 26°
2026-05-08 03:03 24.51331 -19.84474 37018 ft 488 kts 26°
2026-05-08 03:04 24.57068 -19.80486 37020 ft 488 kts 26°
2026-05-08 03:04 24.62769 -19.76520 37038 ft 489 kts 26°
2026-05-08 03:05 24.68518 -19.72515 37016 ft 489 kts 26°
2026-05-08 03:05 24.74267 -19.68506 37016 ft 489 kts 26°
2026-05-08 03:06 24.80014 -19.64493 37013 ft 489 kts 26°
2026-05-08 03:06 24.85723 -19.60502 37016 ft 489 kts 26°
2026-05-08 03:07 24.91470 -19.56480 37031 ft 489 kts 26°
2026-05-08 03:07 24.97219 -19.52452 37028 ft 490 kts 25°
2026-05-08 03:08 25.02976 -19.48415 37020 ft 490 kts 25°
2026-05-08 03:08 25.08692 -19.44401 37019 ft 490 kts 26°
2026-05-08 03:09 25.14446 -19.40354 37021 ft 491 kts 26°
2026-05-08 03:09 25.20202 -19.36299 37020 ft 491 kts 26°
2026-05-08 03:10 25.25958 -19.32241 37043 ft 491 kts 26°
2026-05-08 03:10 25.31680 -19.28202 37022 ft 492 kts 25°
2026-05-08 03:11 25.37443 -19.24130 37019 ft 492 kts 25°
2026-05-08 03:11 25.43206 -19.20052 37019 ft 492 kts 25°
2026-05-08 03:12 25.48961 -19.15975 37019 ft 491 kts 25°
2026-05-08 03:12 25.54681 -19.11919 37018 ft 491 kts 25°
2026-05-08 03:13 25.60444 -19.07828 37042 ft 492 kts 25°
2026-05-08 03:13 25.66212 -19.03728 37025 ft 493 kts 25°
2026-05-08 03:14 25.71987 -18.99619 37023 ft 493 kts 25°
2026-05-08 03:14 25.77725 -18.95530 37016 ft 494 kts 25°
2026-05-08 03:15 25.83502 -18.91409 37015 ft 494 kts 25°
2026-05-08 03:15 25.89277 -18.87284 37018 ft 494 kts 26°
2026-05-08 03:16 25.95057 -18.83151 37006 ft 495 kts 25°
2026-05-08 03:16 26.00840 -18.79012 37009 ft 494 kts 25°
2026-05-08 03:17 26.06587 -18.74896 37024 ft 494 kts 25°
2026-05-08 03:17 26.12366 -18.70750 37022 ft 494 kts 25°
2026-05-08 03:18 26.18148 -18.66597 37008 ft 494 kts 25°
2026-05-08 03:18 26.23928 -18.62439 37042 ft 495 kts 25°
2026-05-08 03:19 26.29672 -18.58304 37021 ft 495 kts 25°
2026-05-08 03:19 26.35463 -18.54129 37013 ft 496 kts 25°
2026-05-08 03:20 26.41252 -18.49950 37012 ft 496 kts 25°
2026-05-08 03:20 26.47042 -18.45764 37015 ft 496 kts 25°
2026-05-08 03:21 26.52831 -18.41575 37020 ft 496 kts 25°
2026-05-08 03:21 26.58591 -18.37403 37016 ft 497 kts 25°
2026-05-08 03:22 26.64392 -18.33196 37015 ft 497 kts 26°
2026-05-08 03:22 26.70198 -18.28978 37016 ft 498 kts 26°
2026-05-08 03:23 26.76003 -18.24757 37018 ft 498 kts 26°
2026-05-08 03:23 26.81769 -18.20559 37016 ft 498 kts 26°
2026-05-08 03:24 26.87573 -18.16327 37049 ft 498 kts 26°
2026-05-08 03:24 26.93385 -18.12086 37018 ft 499 kts 25°
2026-05-08 03:25 26.99197 -18.07838 37018 ft 499 kts 26°
2026-05-08 03:25 27.04974 -18.03611 37016 ft 499 kts 26°
2026-05-08 03:26 27.10785 -17.99354 37012 ft 499 kts 26°
2026-05-08 03:26 27.16602 -17.95086 37013 ft 499 kts 26°
2026-05-08 03:27 27.22421 -17.90813 37015 ft 500 kts 26°
2026-05-08 03:27 27.28207 -17.86558 37015 ft 500 kts 26°
2026-05-08 03:28 27.34032 -17.82269 37013 ft 501 kts 26°
2026-05-08 03:28 27.39855 -17.77975 37011 ft 501 kts 26°
2026-05-08 03:29 27.45682 -17.73673 37028 ft 501 kts 26°
2026-05-08 03:29 27.51467 -17.69398 37047 ft 501 kts 26°
2026-05-08 03:30 27.60221 -17.62917 37016 ft 502 kts 26°
2026-05-08 03:31 27.71896 -17.54252 37013 ft 502 kts 26°
2026-05-08 03:32 27.80605 -17.47775 37018 ft 502 kts 26°
2026-05-08 03:32 27.86443 -17.43425 37020 ft 503 kts 26°
2026-05-08 03:33 27.92282 -17.39068 37023 ft 503 kts 26°
2026-05-08 03:33 27.98155 -17.34784 37016 ft 499 kts 21°
2026-05-08 03:34 28.04346 -17.31587 37118 ft 487 kts 10°
2026-05-08 03:34 28.07562 -17.30418 37432 ft 484 kts
2026-05-08 03:34 28.10760 -17.29273 37794 ft 480 kts
2026-05-08 03:34 28.13939 -17.28132 38041 ft 480 kts
2026-05-08 03:35 28.17132 -17.26983 38021 ft 482 kts
2026-05-08 03:35 28.23503 -17.24661 38023 ft 479 kts
2026-05-08 03:36 28.29787 -17.22344 38010 ft 477 kts
2026-05-08 03:36 28.36094 -17.20013 38016 ft 476 kts
2026-05-08 03:37 28.42393 -17.17685 38011 ft 476 kts
2026-05-08 03:37 28.48702 -17.15352 38012 ft 478 kts
2026-05-08 03:38 28.54981 -17.13025 38014 ft 478 kts
2026-05-08 03:38 28.61311 -17.10676 38009 ft 479 kts
2026-05-08 03:39 28.67642 -17.08323 38013 ft 479 kts
2026-05-08 03:39 28.73981 -17.05965 38041 ft 479 kts
2026-05-08 03:40 28.80283 -17.03618 38017 ft 480 kts
2026-05-08 03:40 28.86628 -17.01251 38006 ft 480 kts
2026-05-08 03:41 28.92974 -16.98881 38009 ft 480 kts
2026-05-08 03:41 28.99321 -16.96508 38004 ft 480 kts
2026-05-08 03:42 29.05622 -16.94148 38013 ft 480 kts
2026-05-08 03:42 29.11971 -16.91768 38010 ft 480 kts
2026-05-08 03:43 29.18317 -16.89386 38001 ft 480 kts
2026-05-08 03:43 29.24660 -16.87002 38004 ft 480 kts
2026-05-08 03:44 29.30956 -16.84632 38004 ft 479 kts
2026-05-08 03:44 29.37301 -16.82242 38006 ft 480 kts
2026-05-08 03:45 29.43651 -16.79846 37995 ft 480 kts
2026-05-08 03:45 29.50001 -16.77446 37993 ft 480 kts
2026-05-08 03:46 29.56344 -16.75046 37991 ft 480 kts
2026-05-08 03:46 29.62647 -16.72658 37992 ft 480 kts
2026-05-08 03:47 29.68994 -16.70251 37990 ft 480 kts
2026-05-08 03:47 29.75340 -16.67840 37989 ft 480 kts
2026-05-08 03:48 29.81694 -16.65423 37993 ft 481 kts
2026-05-08 03:48 29.88045 -16.63005 37992 ft 481 kts
2026-05-08 03:49 29.94369 -16.60593 37996 ft 483 kts
2026-05-08 03:49 30.00754 -16.58155 37991 ft 483 kts
2026-05-08 03:50 30.07138 -16.55713 37981 ft 483 kts
2026-05-08 03:50 30.13479 -16.53284 37968 ft 483 kts
2026-05-08 03:51 30.19862 -16.50836 38005 ft 484 kts
2026-05-08 03:51 30.26253 -16.48382 37984 ft 484 kts
2026-05-08 03:52 30.32647 -16.45923 37975 ft 484 kts
2026-05-08 03:52 30.38994 -16.43479 37976 ft 484 kts
2026-05-08 03:53 30.45389 -16.41015 37976 ft 484 kts
2026-05-08 03:53 30.51785 -16.38547 37973 ft 485 kts
2026-05-08 03:54 30.58186 -16.36072 37977 ft 485 kts
2026-05-08 03:54 30.64551 -16.33607 37969 ft 485 kts
2026-05-08 03:55 30.70956 -16.31124 37964 ft 485 kts
2026-05-08 03:55 30.77357 -16.28638 38015 ft 486 kts
2026-05-08 03:56 30.83783 -16.26142 37968 ft 487 kts
2026-05-08 03:56 30.90171 -16.23654 37963 ft 488 kts
2026-05-08 03:57 30.96612 -16.21142 37956 ft 488 kts
2026-05-08 03:57 31.03054 -16.18626 37957 ft 488 kts
2026-05-08 03:58 31.09505 -16.16105 37958 ft 490 kts
2026-05-08 03:58 31.15931 -16.13589 37954 ft 490 kts
2026-05-08 03:59 31.22395 -16.11053 37948 ft 491 kts
2026-05-08 03:59 31.28871 -16.08509 37941 ft 491 kts
2026-05-08 04:00 31.35345 -16.05962 37978 ft 491 kts
2026-05-08 04:00 31.41828 -16.03370 37952 ft 496 kts
2026-05-08 04:01 31.48124 -15.99931 37952 ft 506 kts 15°
2026-05-08 04:01 31.54405 -15.96170 37937 ft 508 kts 15°
2026-05-08 04:02 31.60698 -15.92407 37940 ft 508 kts 15°
2026-05-08 04:02 31.67018 -15.88669 37940 ft 509 kts 15°
2026-05-08 04:03 31.73312 -15.84961 37933 ft 510 kts 15°
2026-05-08 04:03 31.82832 -15.79345 37927 ft 511 kts 15°
2026-05-08 04:04 31.89182 -15.75587 37924 ft 511 kts 15°
2026-05-08 04:04 31.95497 -15.71847 37928 ft 513 kts 15°
2026-05-08 04:05 32.01873 -15.68063 37923 ft 513 kts 15°
2026-05-08 04:05 32.08249 -15.64271 37916 ft 513 kts 15°
2026-05-08 04:06 32.14627 -15.60474 37914 ft 514 kts 16°
2026-05-08 04:06 32.21010 -15.56669 37979 ft 515 kts 16°
2026-05-08 04:07 32.27386 -15.52864 37921 ft 518 kts 16°
2026-05-08 04:07 32.33819 -15.49015 37918 ft 519 kts 17°
2026-05-08 04:08 32.40261 -15.45153 37915 ft 520 kts 17°
2026-05-08 04:08 32.46713 -15.41280 37910 ft 520 kts 17°
2026-05-08 04:09 32.53115 -15.37431 37906 ft 520 kts 17°
2026-05-08 04:09 32.59557 -15.33552 37906 ft 519 kts 17°
2026-05-08 04:10 32.65994 -15.29669 37904 ft 519 kts 17°
2026-05-08 04:10 32.72424 -15.25786 37904 ft 518 kts 17°
2026-05-08 04:11 32.78813 -15.21922 37902 ft 519 kts 17°
2026-05-08 04:11 32.85252 -15.18021 37905 ft 520 kts 17°
2026-05-08 04:12 32.91702 -15.14106 37896 ft 520 kts 17°
2026-05-08 04:12 32.98153 -15.10183 37894 ft 521 kts 17°
2026-05-08 04:13 33.04563 -15.06280 37952 ft 521 kts 18°
2026-05-08 04:13 33.11039 -15.02331 37888 ft 523 kts 18°
2026-05-08 04:14 33.17510 -14.98376 37884 ft 523 kts 18°
2026-05-08 04:14 33.23983 -14.94413 37881 ft 523 kts 18°
2026-05-08 04:15 33.30414 -14.90470 37879 ft 523 kts 18°
2026-05-08 04:15 33.36892 -14.86494 37885 ft 524 kts 18°
2026-05-08 04:16 33.43378 -14.82504 37876 ft 524 kts 19°
2026-05-08 04:16 33.49857 -14.78510 37876 ft 524 kts 19°
2026-05-08 04:17 33.56338 -14.74510 37871 ft 523 kts 19°
2026-05-08 04:17 33.62766 -14.70537 37877 ft 524 kts 19°
2026-05-08 04:18 33.69241 -14.66527 37867 ft 524 kts 19°
2026-05-08 04:18 33.75713 -14.62511 37865 ft 523 kts 19°
2026-05-08 04:19 33.82176 -14.58495 37865 ft 523 kts 19°
2026-05-08 04:19 33.88600 -14.54497 37889 ft 524 kts 20°
2026-05-08 04:20 33.95080 -14.50458 37864 ft 525 kts 20°
2026-05-08 04:20 34.01566 -14.46406 37859 ft 525 kts 20°
2026-05-08 04:21 34.08059 -14.42343 37857 ft 526 kts 20°
2026-05-08 04:21 34.14509 -14.38300 37918 ft 526 kts 20°
2026-05-08 04:22 34.21015 -14.34216 37856 ft 527 kts 21°
2026-05-08 04:22 34.27519 -14.30124 37854 ft 527 kts 21°
2026-05-08 04:23 34.34020 -14.26026 37851 ft 526 kts 21°
2026-05-08 04:23 34.40460 -14.21961 37849 ft 525 kts 21°
2026-05-08 04:24 34.46943 -14.17863 37844 ft 526 kts 21°
2026-05-08 04:24 34.53422 -14.13759 37849 ft 525 kts 21°
2026-05-08 04:25 34.59892 -14.09653 37846 ft 525 kts 21°
2026-05-08 04:25 34.66320 -14.05567 37847 ft 525 kts 21°
2026-05-08 04:26 34.72792 -14.01447 37846 ft 526 kts 21°
2026-05-08 04:26 34.79265 -13.97317 37841 ft 526 kts 21°
2026-05-08 04:27 34.85739 -13.93180 37836 ft 525 kts 21°
2026-05-08 04:27 34.92214 -13.89034 37841 ft 526 kts 22°
2026-05-08 04:28 34.98642 -13.84912 37846 ft 526 kts 22°
2026-05-08 04:28 35.05105 -13.80758 37837 ft 524 kts 22°
2026-05-08 04:29 35.11548 -13.76610 37833 ft 523 kts 22°
2026-05-08 04:29 35.17977 -13.72464 37832 ft 522 kts 22°
2026-05-08 04:30 35.24399 -13.68316 37833 ft 522 kts 22°
2026-05-08 04:30 35.30775 -13.64191 37833 ft 522 kts 22°
2026-05-08 04:31 35.37197 -13.60028 37835 ft 522 kts 22°
2026-05-08 04:31 35.43622 -13.55855 37832 ft 523 kts 22°
2026-05-08 04:32 35.50053 -13.51671 37873 ft 523 kts 22°
2026-05-08 04:32 35.56456 -13.47497 37826 ft 525 kts 22°
2026-05-08 04:33 35.62904 -13.43286 37833 ft 525 kts 22°
2026-05-08 04:33 35.69359 -13.39063 37830 ft 526 kts 22°
2026-05-08 04:34 35.75827 -13.34823 37877 ft 526 kts 23°
2026-05-08 04:34 35.82246 -13.30608 37830 ft 527 kts 23°
2026-05-08 04:35 35.88706 -13.26357 37826 ft 526 kts 23°
2026-05-08 04:35 35.95149 -13.22109 37827 ft 525 kts 23°
2026-05-08 04:36 36.01584 -13.17859 37830 ft 524 kts 23°
2026-05-08 04:36 36.07967 -13.13638 37836 ft 524 kts 24°
2026-05-08 04:37 36.14389 -13.09381 37825 ft 523 kts 24°
2026-05-08 04:37 36.20800 -13.05123 37830 ft 522 kts 24°
2026-05-08 04:38 36.27201 -13.00864 37830 ft 522 kts 24°
2026-05-08 04:38 36.33556 -12.96629 37819 ft 522 kts 24°
2026-05-08 04:39 36.39945 -12.92362 37816 ft 521 kts 25°
2026-05-08 04:39 36.46329 -12.88091 37836 ft 521 kts 25°
2026-05-08 04:40 36.52705 -12.83817 37824 ft 521 kts 25°
2026-05-08 04:40 36.59085 -12.79532 37827 ft 521 kts 25°
2026-05-08 04:41 36.65423 -12.75268 37816 ft 521 kts 25°
2026-05-08 04:41 36.71790 -12.70975 37827 ft 520 kts 25°
2026-05-08 04:42 36.78159 -12.66673 37830 ft 520 kts 25°
2026-05-08 04:42 36.84524 -12.62366 37842 ft 521 kts 25°
2026-05-08 04:43 36.90893 -12.58048 37833 ft 521 kts 25°
2026-05-08 04:43 36.97210 -12.53757 37829 ft 520 kts 25°
2026-05-08 04:44 37.03572 -12.49427 37827 ft 520 kts 25°
2026-05-08 04:44 37.09930 -12.45092 37832 ft 521 kts 26°
2026-05-08 04:45 37.16295 -12.40743 37816 ft 521 kts 26°
2026-05-08 04:45 37.22615 -12.36417 37821 ft 521 kts 26°
2026-05-08 04:46 37.28983 -12.32049 37840 ft 522 kts 26°
2026-05-08 04:46 37.35353 -12.27672 37839 ft 522 kts 26°
2026-05-08 04:47 37.41729 -12.23282 37834 ft 522 kts 26°
2026-05-08 04:47 37.48050 -12.18920 37833 ft 521 kts 26°
2026-05-08 04:48 37.54406 -12.14526 37834 ft 521 kts 26°
2026-05-08 04:48 37.60760 -12.10126 37844 ft 520 kts 26°
2026-05-08 04:49 37.67097 -12.05729 37824 ft 520 kts 26°
2026-05-08 04:49 37.73428 -12.01327 37831 ft 519 kts 27°
2026-05-08 04:50 37.79707 -11.96952 37842 ft 519 kts 27°
2026-05-08 04:50 37.86022 -11.92544 37846 ft 519 kts 27°
2026-05-08 04:51 37.92344 -11.88123 37851 ft 519 kts 27°
2026-05-08 04:51 37.98669 -11.83690 37846 ft 520 kts 27°
2026-05-08 04:52 38.04956 -11.79276 37842 ft 520 kts 27°
2026-05-08 04:52 38.11282 -11.74824 37858 ft 519 kts 27°
2026-05-08 04:53 38.17590 -11.70377 37842 ft 518 kts 27°
2026-05-08 04:53 38.23878 -11.65935 37844 ft 516 kts 27°
2026-05-08 04:54 38.30104 -11.61527 37849 ft 515 kts 27°
2026-05-08 04:54 38.36361 -11.57090 37848 ft 514 kts 27°
2026-05-08 04:55 38.42596 -11.52659 37851 ft 513 kts 27°
2026-05-08 04:55 38.48818 -11.48229 37851 ft 512 kts 27°
2026-05-08 04:56 38.55031 -11.43796 37849 ft 511 kts 27°
2026-05-08 04:56 38.61203 -11.39384 37851 ft 512 kts 27°
2026-05-08 04:57 38.67415 -11.34934 37852 ft 512 kts 27°
2026-05-08 04:57 38.73629 -11.30474 37841 ft 512 kts 27°
2026-05-08 04:58 38.79847 -11.26002 37869 ft 513 kts 28°
2026-05-08 04:58 38.86035 -11.21543 37856 ft 514 kts 28°
2026-05-08 04:59 38.92271 -11.17040 37859 ft 514 kts 28°
2026-05-08 04:59 38.98512 -11.12523 37857 ft 515 kts 28°
2026-05-08 05:00 39.04750 -11.08000 37856 ft 515 kts 28°
2026-05-08 05:00 39.10986 -11.03469 37860 ft 515 kts 28°
2026-05-08 05:01 39.17174 -10.98964 37858 ft 514 kts 28°
2026-05-08 05:01 39.23395 -10.94426 37856 ft 513 kts 28°
2026-05-08 05:02 39.29604 -10.89886 37860 ft 513 kts 28°
2026-05-08 05:02 39.35807 -10.85343 37859 ft 512 kts 28°
2026-05-08 05:03 39.41968 -10.80821 37855 ft 512 kts 28°
2026-05-08 05:03 39.48165 -10.76262 37857 ft 512 kts 29°
2026-05-08 05:04 39.54361 -10.71695 37883 ft 512 kts 29°
2026-05-08 05:04 39.60556 -10.67121 37870 ft 512 kts 29°
2026-05-08 05:05 39.66701 -10.62572 37861 ft 512 kts 29°
2026-05-08 05:05 39.72882 -10.57987 37865 ft 511 kts 29°
2026-05-08 05:06 39.79054 -10.53401 37873 ft 511 kts 30°
2026-05-08 05:06 39.85216 -10.48811 37866 ft 510 kts 30°
2026-05-08 05:07 39.91337 -10.44243 37867 ft 510 kts 30°
2026-05-08 05:07 39.97495 -10.39638 37865 ft 510 kts 30°
2026-05-08 05:08 40.03643 -10.35030 37870 ft 509 kts 30°
2026-05-08 05:08 40.09783 -10.30419 37865 ft 509 kts 30°
2026-05-08 05:09 40.15868 -10.25839 37870 ft 508 kts 30°
2026-05-08 05:09 40.21986 -10.21224 37869 ft 507 kts 30°
2026-05-08 05:10 40.31149 -10.14296 37867 ft 507 kts 31°
2026-05-08 05:11 40.37254 -10.09666 37863 ft 507 kts 31°
2026-05-08 05:11 40.43318 -10.05060 37864 ft 507 kts 31°
2026-05-08 05:12 40.49425 -10.00410 37880 ft 507 kts 31°
2026-05-08 05:12 40.55533 -9.95749 37867 ft 507 kts 31°
2026-05-08 05:13 40.61627 -9.91089 37865 ft 507 kts 31°
2026-05-08 05:13 40.67716 -9.86424 37868 ft 506 kts 31°
2026-05-08 05:14 40.73757 -9.81785 37852 ft 506 kts 31°
2026-05-08 05:14 40.79835 -9.77108 37872 ft 506 kts 31°
2026-05-08 05:15 40.85908 -9.72424 37879 ft 506 kts 31°
2026-05-08 05:15 40.91987 -9.67725 37883 ft 506 kts 31°
2026-05-08 05:16 40.98024 -9.63051 37863 ft 506 kts 32°
2026-05-08 05:16 41.04093 -9.58340 37878 ft 506 kts 32°
2026-05-08 05:17 41.10159 -9.53621 37868 ft 505 kts 32°
2026-05-08 05:17 41.16216 -9.48900 37862 ft 505 kts 32°
2026-05-08 05:18 41.22264 -9.44175 37859 ft 504 kts 32°
2026-05-08 05:18 41.28265 -9.39476 37862 ft 504 kts 32°
2026-05-08 05:19 41.34309 -9.34733 37864 ft 504 kts 32°
2026-05-08 05:19 41.40349 -9.29984 37874 ft 504 kts 32°
2026-05-08 05:20 41.46388 -9.25224 37865 ft 504 kts 32°
2026-05-08 05:20 41.52390 -9.20484 37865 ft 504 kts 32°
2026-05-08 05:21 41.58425 -9.15708 37866 ft 504 kts 32°
2026-05-08 05:21 41.64455 -9.10923 37867 ft 504 kts 32°
2026-05-08 05:22 41.70481 -9.06132 37855 ft 503 kts 32°
2026-05-08 05:22 41.76505 -9.01332 37871 ft 504 kts 32°
2026-05-08 05:23 41.82485 -8.96556 37870 ft 504 kts 32°
2026-05-08 05:23 41.88553 -8.91818 37870 ft 505 kts 28°
2026-05-08 05:24 41.94879 -8.87706 37862 ft 505 kts 26°
2026-05-08 05:24 42.01195 -8.83718 37862 ft 504 kts 26°
2026-05-08 05:25 42.07535 -8.79673 37856 ft 504 kts 27°
2026-05-08 05:25 42.13850 -8.75595 37866 ft 503 kts 27°
2026-05-08 05:26 42.20156 -8.71501 37829 ft 503 kts 27°
2026-05-08 05:26 42.26460 -8.67400 37849 ft 503 kts 27°
2026-05-08 05:27 42.32728 -8.63315 37853 ft 504 kts 27°
2026-05-08 05:27 42.39038 -8.59195 37866 ft 504 kts 27°
2026-05-08 05:28 42.45364 -8.55056 37854 ft 505 kts 27°
2026-05-08 05:28 42.51690 -8.50907 37851 ft 505 kts 27°
2026-05-08 05:29 42.57971 -8.46778 37854 ft 505 kts 27°
2026-05-08 05:29 42.64289 -8.42617 37847 ft 505 kts 27°
2026-05-08 05:30 42.70604 -8.38447 37852 ft 504 kts 27°
2026-05-08 05:30 42.75845 -8.34978 37855 ft 504 kts 27°
2026-05-08 05:31 42.82147 -8.30799 37847 ft 504 kts 27°
2026-05-08 05:31 42.89467 -8.25933 37853 ft 504 kts 27°
2026-05-08 05:32 42.94746 -8.22417 37859 ft 504 kts 27°
2026-05-08 05:32 43.01003 -8.18239 37854 ft 504 kts 27°
2026-05-08 05:33 43.07304 -8.14023 37861 ft 504 kts 27°
2026-05-08 05:33 43.13599 -8.09801 37846 ft 504 kts 27°
2026-05-08 05:34 43.19891 -8.05571 37851 ft 503 kts 27°
2026-05-08 05:34 43.26131 -8.01366 37844 ft 503 kts 27°
2026-05-08 05:35 43.32407 -7.97128 37848 ft 502 kts 27°
2026-05-08 05:35 43.38669 -7.92889 37858 ft 501 kts 27°
2026-05-08 05:36 43.44914 -7.88652 37854 ft 500 kts 27°
2026-05-08 05:36 43.51113 -7.84436 37853 ft 500 kts 27°
2026-05-08 05:37 43.57342 -7.80190 37843 ft 500 kts 27°
2026-05-08 05:37 43.63565 -7.75938 37843 ft 499 kts 27°
2026-05-08 05:38 43.69788 -7.71677 37847 ft 499 kts 27°
2026-05-08 05:38 43.75959 -7.67442 37847 ft 499 kts 27°
2026-05-08 05:39 43.82173 -7.63166 37851 ft 499 kts 27°
2026-05-08 05:39 43.88382 -7.58884 37816 ft 498 kts 27°
2026-05-08 05:40 43.94586 -7.54596 37832 ft 498 kts 27°
2026-05-08 05:40 44.00750 -7.50326 37842 ft 499 kts 27°
2026-05-08 05:41 44.06954 -7.46017 37865 ft 499 kts 27°
2026-05-08 05:41 44.13161 -7.41696 37843 ft 499 kts 27°
2026-05-08 05:42 44.19361 -7.37370 37846 ft 499 kts 27°
2026-05-08 05:42 44.25562 -7.33032 37850 ft 498 kts 27°
2026-05-08 05:43 44.31716 -7.28719 37851 ft 498 kts 27°
2026-05-08 05:43 44.37905 -7.24369 37842 ft 498 kts 27°
2026-05-08 05:44 44.44089 -7.20012 37850 ft 497 kts 26°
2026-05-08 05:44 44.50262 -7.15654 37849 ft 497 kts 26°
2026-05-08 05:45 44.56430 -7.11288 37850 ft 497 kts 26°
2026-05-08 05:45 44.62558 -7.06940 37849 ft 497 kts 26°
2026-05-08 05:46 44.68724 -7.02555 37856 ft 497 kts 26°
2026-05-08 05:46 44.74888 -6.98160 37854 ft 497 kts 26°
2026-05-08 05:47 44.81051 -6.93756 37868 ft 497 kts 26°
2026-05-08 05:47 44.86915 -6.88761 37874 ft 496 kts 35°
2026-05-08 05:48 44.92509 -6.83062 37858 ft 496 kts 36°
2026-05-08 05:48 44.98082 -6.77329 37862 ft 496 kts 36°
2026-05-08 05:49 45.03671 -6.71624 37867 ft 495 kts 35°
2026-05-08 05:49 45.09231 -6.65972 37865 ft 495 kts 35°
2026-05-08 05:50 45.14820 -6.60285 37868 ft 495 kts 35°
2026-05-08 05:50 45.20402 -6.54590 37871 ft 494 kts 35°
2026-05-08 05:51 45.25972 -6.48890 37874 ft 493 kts 35°
2026-05-08 05:51 45.31491 -6.43227 37871 ft 492 kts 35°
2026-05-08 05:52 45.37038 -6.37523 37879 ft 492 kts 35°
2026-05-08 05:52 45.42576 -6.31812 37884 ft 491 kts 35°
2026-05-08 05:53 45.48109 -6.26094 37880 ft 491 kts 35°
2026-05-08 05:53 45.53602 -6.20402 37879 ft 491 kts 35°
2026-05-08 05:54 45.59122 -6.14668 37886 ft 491 kts 35°
2026-05-08 05:54 45.64638 -6.08924 37898 ft 490 kts 35°
2026-05-08 05:55 45.70146 -6.03175 37892 ft 490 kts 35°
2026-05-08 05:55 45.75651 -5.97413 37891 ft 490 kts 35°
2026-05-08 05:56 45.81109 -5.91687 37900 ft 490 kts 35°
2026-05-08 05:56 45.86598 -5.85914 37903 ft 489 kts 35°
2026-05-08 05:57 45.92084 -5.80129 37910 ft 489 kts 35°
2026-05-08 05:57 45.97561 -5.74341 37911 ft 489 kts 35°
2026-05-08 05:58 46.02997 -5.68580 37922 ft 489 kts 35°
2026-05-08 05:58 46.08465 -5.62772 37923 ft 489 kts 35°
2026-05-08 05:59 46.13935 -5.56946 37900 ft 489 kts 35°
2026-05-08 05:59 46.19397 -5.51114 37921 ft 489 kts 34°
2026-05-08 06:00 46.24857 -5.45270 37940 ft 488 kts 34°
2026-05-08 06:00 46.30279 -5.39451 37917 ft 488 kts 34°
2026-05-08 06:01 46.35728 -5.33588 37918 ft 488 kts 34°
2026-05-08 06:01 46.41173 -5.27716 37928 ft 488 kts 34°
2026-05-08 06:02 46.46576 -5.21873 37940 ft 488 kts 34°
2026-05-08 06:02 46.52011 -5.15981 37928 ft 488 kts 34°
2026-05-08 06:03 46.57444 -5.10076 37936 ft 488 kts 34°
2026-05-08 06:03 46.62881 -5.04152 37935 ft 488 kts 34°
2026-05-08 06:04 46.68314 -4.98216 37942 ft 488 kts 34°
2026-05-08 06:04 46.73709 -4.92307 37939 ft 489 kts 34°
2026-05-08 06:05 46.79138 -4.86345 37937 ft 489 kts 34°
2026-05-08 06:05 46.84563 -4.80373 37944 ft 488 kts 34°
2026-05-08 06:06 46.89982 -4.74391 37957 ft 488 kts 34°
2026-05-08 06:06 46.95366 -4.68433 37946 ft 488 kts 34°
2026-05-08 06:07 47.00777 -4.62429 37955 ft 488 kts 35°
2026-05-08 06:07 47.06187 -4.56411 37951 ft 488 kts 35°
2026-05-08 06:08 47.11554 -4.50425 37962 ft 488 kts 35°
2026-05-08 06:08 47.16957 -4.44383 37958 ft 488 kts 35°
2026-05-08 06:09 47.22353 -4.38333 37959 ft 488 kts 35°
2026-05-08 06:09 47.27740 -4.32277 37962 ft 487 kts 35°
2026-05-08 06:10 47.33094 -4.26243 37968 ft 487 kts 35°
2026-05-08 06:10 47.38472 -4.20165 37964 ft 487 kts 35°
2026-05-08 06:11 47.43851 -4.14071 37957 ft 487 kts 35°
2026-05-08 06:11 47.49226 -4.07964 37966 ft 487 kts 35°
2026-05-08 06:12 47.54600 -4.01843 37982 ft 487 kts 35°
2026-05-08 06:12 47.59931 -3.95755 37971 ft 487 kts 35°
2026-05-08 06:13 47.65291 -3.89617 37961 ft 487 kts 35°
2026-05-08 06:13 47.70643 -3.83472 37972 ft 486 kts 35°
2026-05-08 06:14 47.75989 -3.77317 37979 ft 486 kts 35°
2026-05-08 06:14 47.81294 -3.71194 37973 ft 486 kts 35°
2026-05-08 06:15 47.86632 -3.65017 37965 ft 486 kts 35°
2026-05-08 06:15 47.91965 -3.58827 37974 ft 486 kts 35°
2026-05-08 06:16 47.97292 -3.52629 37993 ft 486 kts 35°
2026-05-08 06:16 48.02586 -3.46452 37977 ft 486 kts 35°
2026-05-08 06:17 48.10580 -3.37093 37977 ft 487 kts 35°
2026-05-08 06:17 48.15914 -3.30829 37994 ft 488 kts 35°
2026-05-08 06:18 48.21252 -3.24541 37987 ft 489 kts 35°
2026-05-08 06:18 48.26560 -3.18272 37991 ft 489 kts 35°
2026-05-08 06:19 48.31904 -3.11944 37998 ft 489 kts 35°
2026-05-08 06:19 48.37248 -3.05598 38000 ft 489 kts 35°
2026-05-08 06:20 48.42588 -2.99237 38009 ft 490 kts 34°
2026-05-08 06:20 48.47895 -2.92900 38003 ft 490 kts 35°
2026-05-08 06:21 48.53238 -2.86503 37990 ft 491 kts 35°
2026-05-08 06:21 48.58581 -2.80087 38001 ft 491 kts 35°
2026-05-08 06:22 48.63918 -2.73661 38010 ft 491 kts 35°
2026-05-08 06:22 48.69218 -2.67260 38003 ft 491 kts 35°
2026-05-08 06:23 48.74547 -2.60808 38000 ft 490 kts 35°
2026-05-08 06:23 48.79880 -2.54375 38005 ft 489 kts 34°
2026-05-08 06:24 48.85264 -2.48091 38004 ft 487 kts 34°
2026-05-08 06:24 48.90641 -2.41833 38012 ft 487 kts 34°
2026-05-08 06:25 48.95959 -2.35597 38019 ft 486 kts 34°
2026-05-08 06:25 49.01307 -2.29290 38023 ft 486 kts 34°
2026-05-08 06:26 49.06654 -2.22966 38041 ft 487 kts 34°
2026-05-08 06:26 49.11996 -2.16631 38031 ft 486 kts 35°
2026-05-08 06:27 49.17291 -2.10335 38014 ft 485 kts 35°
2026-05-08 06:27 49.22657 -2.04140 38028 ft 481 kts 30°
2026-05-08 06:28 49.28446 -1.99089 38028 ft 478 kts 25°
2026-05-08 06:28 49.34293 -1.94251 38027 ft 478 kts 25°
2026-05-08 06:29 49.40070 -1.89385 38013 ft 471 kts 26°
2026-05-08 06:29 49.45697 -1.84584 38013 ft 458 kts 26°
2026-05-08 06:30 49.51283 -1.79815 38049 ft 462 kts 26°
2026-05-08 06:30 49.56956 -1.75100 38026 ft 463 kts 20°
2026-05-08 06:31 49.63048 -1.72335 38034 ft 458 kts
2026-05-08 06:31 49.69377 -1.71625 38030 ft 455 kts 359°
2026-05-08 06:32 49.75705 -1.71213 38032 ft 455 kts 360°
2026-05-08 06:32 49.82027 -1.70725 38024 ft 454 kts
2026-05-08 06:33 49.88283 -1.70195 38030 ft 453 kts
2026-05-08 06:33 49.94576 -1.69660 38036 ft 452 kts
2026-05-08 06:34 50.00849 -1.68663 38042 ft 455 kts
2026-05-08 06:34 50.06946 -1.65965 37832 ft 455 kts 15°
2026-05-08 06:35 50.09941 -1.64443 37384 ft 451 kts 15°
2026-05-08 06:35 50.12918 -1.62937 36940 ft 448 kts 15°
2026-05-08 06:35 50.15871 -1.61464 36538 ft 443 kts 14°
2026-05-08 06:35 50.18758 -1.60042 36167 ft 440 kts 14°
2026-05-08 06:36 50.21697 -1.58606 35859 ft 446 kts 14°
2026-05-08 06:36 50.24691 -1.57142 35393 ft 456 kts 14°
2026-05-08 06:36 50.27746 -1.55646 34981 ft 463 kts 14°
2026-05-08 06:36 50.30839 -1.54136 34629 ft 468 kts 14°
2026-05-08 06:37 50.33960 -1.52613 34352 ft 470 kts 14°
2026-05-08 06:37 50.37083 -1.51089 34140 ft 471 kts 14°
2026-05-08 06:37 50.40210 -1.49560 33956 ft 470 kts 14°
2026-05-08 06:37 50.43325 -1.48035 33714 ft 470 kts 14°
2026-05-08 06:38 50.46369 -1.46540 33143 ft 457 kts 14°
2026-05-08 06:38 50.49409 -1.45047 31471 ft 462 kts 15°
2026-05-08 06:38 50.52442 -1.43555 30681 ft 449 kts 15°
2026-05-08 06:38 50.55360 -1.41902 29607 ft 444 kts 22°
2026-05-08 06:39 50.58094 -1.39712 28333 ft 440 kts 28°
2026-05-08 06:39 50.60738 -1.37292 26902 ft 441 kts 30°
2026-05-08 06:39 50.63376 -1.34832 25611 ft 440 kts 30°
2026-05-08 06:39 50.66015 -1.32436 24441 ft 436 kts 29°
2026-05-08 06:40 50.68613 -1.30149 23384 ft 430 kts 28°
2026-05-08 06:40 50.71217 -1.27897 22254 ft 427 kts 28°
2026-05-08 06:40 50.73818 -1.25659 21472 ft 419 kts 28°
2026-05-08 06:40 50.76339 -1.23479 20535 ft 408 kts 29°
2026-05-08 06:41 50.78757 -1.21186 19480 ft 403 kts 33°
2026-05-08 06:41 50.81091 -1.18764 18444 ft 399 kts 34°
2026-05-08 06:41 50.83383 -1.16329 17326 ft 395 kts 34°
2026-05-08 06:41 50.85652 -1.13927 16316 ft 393 kts 34°
2026-05-08 06:42 50.87988 -1.11477 15814 ft 418 kts 33°
2026-05-08 06:42 50.90417 -1.08946 15333 ft 411 kts 33°
2026-05-08 06:42 50.92749 -1.06527 14738 ft 390 kts 33°
2026-05-08 06:42 50.94956 -1.04240 14240 ft 370 kts 33°
2026-05-08 06:43 50.97081 -1.02035 13756 ft 363 kts 33°
2026-05-08 06:43 50.99188 -0.99845 13241 ft 362 kts 33°
2026-05-08 06:43 51.01213 -0.97540 12646 ft 356 kts 42°
2026-05-08 06:43 51.02947 -0.94733 12039 ft 358 kts 49°
2026-05-08 06:44 51.04566 -0.91716 11435 ft 359 kts 50°
2026-05-08 06:44 51.06175 -0.88663 10889 ft 361 kts 50°
2026-05-08 06:44 51.07778 -0.85673 10471 ft 359 kts 49°
2026-05-08 06:44 51.09412 -0.82680 10089 ft 356 kts 49°
2026-05-08 06:45 51.11045 -0.79733 9672 ft 353 kts 49°
2026-05-08 06:45 51.12668 -0.76827 9259 ft 350 kts 49°
2026-05-08 06:45 51.14389 -0.74186 8614 ft 339 kts 33°
2026-05-08 06:45 51.16566 -0.72875 7678 ft 337 kts
2026-05-08 06:46 51.18900 -0.73058 6942 ft 335 kts 352°
2026-05-08 06:46 51.21207 -0.73372 6378 ft 339 kts 356°
2026-05-08 06:46 51.23548 -0.73528 6044 ft 334 kts 358°
2026-05-08 06:46 51.25854 -0.73653 5687 ft 330 kts 358°
2026-05-08 06:47 51.28143 -0.73786 5279 ft 328 kts 358°
2026-05-08 06:47 51.30406 -0.73930 4983 ft 326 kts 358°
2026-05-08 06:47 51.32668 -0.74083 4732 ft 326 kts 358°
2026-05-08 06:47 51.34931 -0.74241 4471 ft 323 kts 358°
2026-05-08 06:48 51.37151 -0.74399 4254 ft 316 kts 358°
2026-05-08 06:48 51.39322 -0.74553 4022 ft 305 kts 358°
2026-05-08 06:48 51.41309 -0.74697 3799 ft 275 kts 358°
2026-05-08 06:48 51.43130 -0.74829 3608 ft 252 kts 358°
2026-05-08 06:49 51.44853 -0.74952 3477 ft 243 kts 358°
2026-05-08 06:49 51.46490 -0.74889 3281 ft 228 kts 17°
2026-05-08 06:49 51.47716 -0.73542 3107 ft 208 kts 63°
2026-05-08 06:49 51.48018 -0.71454 2970 ft 203 kts 96°
2026-05-08 06:50 51.47853 -0.69231 2672 ft 200 kts 98°
2026-05-08 06:50 51.47728 -0.67040 2385 ft 193 kts 96°
2026-05-08 06:50 51.47694 -0.64950 2134 ft 180 kts 93°
2026-05-08 06:50 51.47698 -0.63038 1905 ft 165 kts 93°
2026-05-08 06:51 51.47704 -0.61254 1667 ft 158 kts 93°
2026-05-08 06:51 51.47708 -0.59501 1466 ft 155 kts 92°
2026-05-08 06:51 51.47716 -0.57862 1273 ft 140 kts 92°
2026-05-08 06:51 51.47721 -0.56333 1077 ft 136 kts 92°
2026-05-08 06:52 51.47726 -0.54821 885 ft 135 kts 91°
2026-05-08 06:52 51.47731 -0.53341 721 ft 134 kts 90°
2026-05-08 06:52 51.47737 -0.51833 560 ft 136 kts 89°
2026-05-08 06:52 51.47741 -0.50327 337 ft 134 kts 89°
2026-05-08 06:53 51.47751 -0.48826 170 ft 134 kts 89°
2026-05-08 06:53 51.47756 -0.47353 93 ft 123 kts 90°
2026-05-08 06:53 51.47758 -0.46236 94 ft 74 kts 90°
2026-05-08 06:53 51.47760 -0.45693 91 ft 34 kts 90°
2026-05-08 06:54 51.47750 -0.45502 92 ft 10 kts 114°
2026-05-08 06:54 51.47690 -0.45466 90 ft 10 kts 180°
2026-05-08 06:54 51.47624 -0.45466 90 ft 10 kts 191°
2026-05-08 06:54 51.47597 -0.45559 94 ft 10 kts 268°
2026-05-08 06:55 51.47595 -0.45669 94 ft 10 kts 270°
2026-05-08 06:55 51.47595 -0.45813 94 ft 15 kts 269°
2026-05-08 06:55 51.47594 -0.46000 94 ft 18 kts 270°
2026-05-08 06:55 51.47593 -0.46218 94 ft 20 kts 269°
2026-05-08 06:56 51.47593 -0.46439 94 ft 20 kts 270°
2026-05-08 06:56 51.47592 -0.46660 91 ft 20 kts 269°
2026-05-08 06:56 51.47587 -0.46881 91 ft 20 kts 265°
2026-05-08 06:56 51.47581 -0.47099 94 ft 20 kts 270°
2026-05-08 06:57 51.47581 -0.47321 94 ft 20 kts 270°
2026-05-08 06:57 51.47580 -0.47541 94 ft 20 kts 269°
2026-05-08 06:57 51.47579 -0.47763 94 ft 20 kts 269°
2026-05-08 06:57 51.47578 -0.47984 91 ft 20 kts 269°
2026-05-08 06:58 51.47577 -0.48205 93 ft 20 kts 270°
2026-05-08 06:58 51.47541 -0.48357 95 ft 15 kts 193°
2026-05-08 06:58 51.47438 -0.48360 90 ft 15 kts 180°
2026-05-08 06:58 51.47357 -0.48358 94 ft 9 kts 178°
2026-05-08 06:59 51.47315 -0.48309 93 ft 8 kts 100°
2026-05-08 06:59 51.47315 -0.48263 91 ft 2 kts 90°
2026-05-08 06:59 51.47315 -0.48238 90 ft 2 kts 90°
2026-05-08 06:59 51.47315 -0.48231 90 ft 0 kts 90°